GFSGBSN_prec_cthk_060.txt.gz
RH
50 46 44 43 45 44 39 39 37 31 27 25 22 15 14 13 12 9 8 8 7 7 9 10 8 7 5 12 16 25 32 31 29 45 46 45 44 27 27 26 25 26 24 26 29 31 28
53 54 56 55 49 42 37 38 35 30 28 25 22 16 14 12 10 8 8 8 7 8 8 8 8 8 13 13 12 22 33 39 30 46 56 54 49 31 29 26 28 26 25 25 29 30 31
61 62 56 53 52 46 39 35 31 27 27 25 24 20 15 12 9 7 7 7 7 8 8 8 9 11 14 7 9 17 32 46 41 35 48 59 56 44 36 31 27 27 28 28 31 33 32
57 54 50 45 45 42 40 37 33 28 28 27 25 22 14 12 9 7 8 7 8 9 10 11 10 14 15 7 11 18 26 41 50 52 48 60 57 49 40 34 30 28 30 30 31 34 34
47 46 46 45 45 41 38 35 33 30 29 28 26 20 13 10 9 8 8 7 10 16 20 16 17 25 19 16 15 18 24 36 52 60 58 61 56 52 42 37 37 29 32 32 34 33 35
52 51 47 46 47 47 45 39 38 35 31 32 27 21 13 10 9 10 9 15 17 20 26 28 34 30 27 18 17 20 30 35 57 60 64 69 53 49 45 40 37 32 35 38 39 37 41
49 48 54 54 49 46 42 39 38 42 36 33 28 22 18 13 12 11 15 22 24 31 30 28 22 28 19 21 22 21 33 35 61 75 66 74 50 47 51 43 38 40 45 47 44 41 41
49 48 46 44 44 46 48 45 41 39 36 31 29 27 20 16 14 15 25 35 35 35 29 22 22 21 19 20 18 18 31 44 63 88 90 75 57 42 47 49 46 49 47 46 47 43 39
42 38 36 36 37 37 40 47 45 42 38 33 29 25 22 17 16 29 39 35 38 36 37 24 24 22 22 22 21 16 23 45 61 81 92 84 62 54 50 46 51 51 49 47 44 44 42
32 35 34 33 32 30 28 32 38 39 37 33 30 28 25 19 27 35 40 40 39 40 43 37 32 31 28 22 24 17 22 36 58 81 90 92 77 68 68 54 54 53 48 46 47 47 44
29 24 27 25 23 25 26 24 25 28 32 38 37 29 27 23 22 26 36 38 40 49 50 26 31 24 23 25 25 23 19 31 53 77 87 93 82 82 72 65 57 54 52 53 52 50 46
26 25 23 29 31 26 25 24 23 24 26 26 29 30 28 25 40 38 36 35 46 61 60 29 29 29 24 27 29 26 23 21 28 57 77 76 80 80 67 58 60 55 55 56 54 53 51
24 25 24 25 27 30 26 25 24 25 26 26 26 24 23 30 32 41 37 44 59 56 29 33 34 25 22 25 33 31 31 26 25 37 60 70 71 65 71 69 60 58 56 59 62 61 55
22 24 24 24 24 28 27 29 31 29 31 31 27 24 20 22 29 39 44 49 55 31 37 35 30 25 20 28 38 36 36 38 30 30 47 77 77 63 65 67 62 62 58 58 70 67 54
24 23 24 30 30 27 29 34 38 37 33 31 28 26 27 21 25 38 54 60 38 36 33 35 33 20 18 31 30 42 38 46 44 36 37 63 67 63 66 69 62 64 67 53 58 62 68
29 29 32 37 35 28 32 39 46 42 36 36 36 34 25 25 39 44 58 53 44 35 38 40 29 21 29 38 38 42 58 74 62 45 36 40 65 57 56 61 65 64 64 65 61 69 74
30 32 32 32 30 29 36 44 44 46 43 44 45 41 25 33 42 53 55 49 40 37 36 42 34 24 35 36 38 42 52 66 59 57 51 39 48 60 54 54 60 64 68 72 69 59 69
29 33 34 39 37 32 39 44 41 49 50 52 52 50 41 65 52 55 52 45 44 43 45 36 39 32 39 43 42 40 47 53 49 58 60 55 49 51 68 58 58 59 62 64 75 75 63
40 41 43 44 40 39 37 41 52 64 56 55 61 51 43 73 81 67 50 49 45 50 47 45 40 31 30 38 41 40 41 49 46 43 62 62 52 59 60 68 71 60 61 62 66 79 95
39 41 42 43 45 46 48 54 61 65 62 63 72 66 53 57 69 74 74 60 55 45 40 46 41 40 37 38 40 43 49 55 49 42 57 58 62 60 59 75 87 82 64 68 71 91 90
36 37 39 43 48 53 62 67 68 71 75 75 78 64 67 89 65 56 62 83 77 58 51 45 48 44 46 46 46 50 47 42 52 50 50 72 79 66 59 64 67 72 70 66 68 79 87
37 44 48 50 59 64 65 69 72 73 83 80 76 71 66 59 86 91 69 59 63 85 70 52 48 48 55 53 57 58 58 60 57 60 57 76 91 78 60 61 64 63 68 85 77 60 62
47 49 49 56 57 53 57 70 76 84 94 88 79 73 88 77 71 75 89 73 56 60 79 80 74 63 58 75 67 67 62 72 70 70 67 65 88 95 83 69 62 61 56 68 74 60 54
45 47 52 54 48 47 48 62 74 94 97 94 85 91 88 68 86 83 71 86 88 71 52 62 83 82 83 80 79 69 61 58 61 60 59 58 74 90 91 93 84 50 45 43 52 50 50
47 52 51 53 51 48 49 58 70 91 98 97 95 92 89 83 81 82 83 76 80 85 67 60 71 79 80 86 83 67 55 52 47 48 52 51 60 87 96 87 84 72 59 53 54 57 58
61 67 73 76 76 71 53 52 68 82 92 96 96 91 85 96 81 80 80 87 86 84 85 71 70 85 80 89 92 73 56 60 51 46 42 45 55 72 78 85 89 62 66 62 55 56 56
78 84 88 94 95 91 84 55 56 74 92 95 91 88 97 99 87 86 89 93 96 94 87 79 83 88 77 80 88 74 68 66 79 76 76 67 64 67 77 82 73 59 59 58 59 73 69
87 90 96 98 99 99 95 86 62 67 84 91 87 91 98 90 83 82 88 88 83 86 96 89 95 89 87 86 80 75 76 77 80 84 86 75 81 71 68 74 74 55 59 66 69 65 68
91 93 93 94 99 98 98 89 75 57 82 87 86 91 94 92 78 75 75 75 81 87 97 98 88 98 91 90 78 80 88 85 78 80 88 96 70 70 55 45 52 57 59 66 69 66 76

GFSGBSN_prec_cthk_063.txt.gz
RH
42 47 48 47 46 49 47 42 44 45 41 37 33 29 25 20 17 15 12 10 8 7 6 7 7 8 8 12 6 8 15 16 18 22 34 39 35 42 42 41 36 28 22 22 21 27 33
49 59 58 56 54 57 59 60 52 43 39 38 33 29 24 17 15 14 12 10 8 7 7 9 9 10 16 17 6 9 13 15 21 21 38 45 44 48 45 42 38 28 27 22 23 25 30
61 58 55 57 59 57 51 48 48 45 41 39 34 29 24 18 15 13 12 9 7 7 9 12 12 14 18 7 6 6 11 14 21 25 29 47 49 51 49 47 42 31 29 25 23 23 27
59 61 64 57 52 52 51 47 45 44 40 37 36 32 28 20 16 15 11 8 7 6 11 18 19 19 18 12 13 12 10 13 19 27 33 41 52 53 53 53 48 34 31 27 20 23 26
65 60 52 52 54 53 51 50 46 45 45 40 34 33 28 22 18 15 10 10 12 11 14 22 21 29 24 17 16 16 15 13 19 25 37 49 51 56 59 58 54 40 32 26 23 25 27
52 53 57 57 54 51 49 47 43 40 41 40 39 34 31 25 19 16 11 16 13 15 20 25 32 39 26 20 20 20 17 22 24 26 38 56 59 54 61 64 63 47 31 26 29 28 37
64 63 55 51 53 53 51 49 48 40 36 35 34 32 29 23 20 18 20 19 19 22 25 26 26 27 22 23 21 19 22 25 26 33 46 54 64 59 58 65 57 48 33 35 41 45 52
51 47 43 42 41 40 40 39 41 48 42 38 34 30 27 21 20 25 33 37 43 40 31 20 19 20 16 19 22 17 21 30 32 42 53 68 68 64 61 61 62 52 36 43 39 45 56
42 42 40 38 35 32 31 30 30 34 34 31 31 30 28 21 20 26 35 43 45 42 40 20 23 22 24 22 24 20 21 30 38 46 64 79 79 73 64 58 54 52 42 42 45 51 52
36 36 34 36 35 30 28 26 24 21 23 25 24 20 21 19 21 30 40 43 40 39 46 31 28 27 25 24 28 21 18 22 38 44 63 77 84 81 71 72 55 50 43 43 47 51 49
35 32 29 24 25 26 25 26 24 21 21 21 22 17 15 13 16 22 33 38 36 44 59 33 31 31 26 25 26 24 19 22 28 45 58 73 85 83 83 70 61 62 52 55 54 57 53
31 30 28 27 24 27 27 26 24 22 23 21 24 20 16 13 16 24 27 32 44 55 56 27 30 30 31 29 31 31 29 21 25 34 47 60 78 85 83 77 75 69 70 64 61 62 66
22 20 23 24 25 24 24 27 28 25 24 23 24 24 18 18 11 21 30 37 50 58 30 36 33 30 25 27 36 38 36 27 25 27 30 38 61 74 86 87 80 75 83 78 75 74 68
21 19 18 22 26 24 22 24 28 27 33 27 24 22 21 17 12 17 29 44 52 35 41 49 42 37 28 29 36 42 40 38 35 30 31 39 66 66 73 69 80 75 78 82 77 75 60
23 25 25 28 27 28 29 26 26 31 36 35 29 24 21 17 18 24 34 51 37 26 31 48 43 35 23 21 33 47 48 46 47 46 45 44 47 57 68 67 71 77 75 66 77 82 75
22 30 28 30 31 32 31 28 32 38 40 39 34 27 21 20 29 36 43 39 30 36 52 47 48 33 31 41 45 48 52 58 66 65 51 42 46 47 66 70 75 75 69 81 92 93 93
28 28 29 30 33 30 29 31 34 43 44 44 40 38 21 34 38 48 49 39 28 22 59 57 50 46 36 48 51 52 58 65 71 77 64 52 46 46 55 64 69 73 78 92 91 79 80
29 30 31 32 34 35 39 36 39 49 44 48 47 48 44 58 55 53 48 34 30 24 43 63 55 50 43 47 55 51 49 55 58 58 62 65 63 50 47 57 64 72 71 86 98 89 78
31 31 32 38 38 46 43 43 38 44 53 63 60 50 38 71 86 70 56 44 39 33 40 55 57 49 40 45 51 47 41 50 52 51 51 54 66 62 55 57 65 72 66 79 81 80 95
31 33 36 38 39 40 42 44 54 57 69 77 70 63 61 52 63 98 84 74 62 44 34 51 50 53 51 46 38 39 47 54 49 49 43 39 59 75 72 71 88 85 80 72 77 91 85
32 36 38 37 36 38 42 49 56 72 78 83 73 68 72 89 72 53 68 74 84 84 56 45 42 46 53 63 53 60 48 51 48 47 47 53 56 67 66 66 78 91 87 78 82 80 94
40 38 36 40 48 48 50 59 70 77 87 85 81 77 69 70 80 94 96 66 58 71 93 82 58 52 53 60 60 56 58 56 53 55 58 59 63 73 72 66 71 81 80 77 86 84 80
40 38 43 47 48 46 50 57 70 69 81 84 85 83 83 81 73 80 84 93 82 69 74 88 89 69 58 66 63 55 58 58 53 58 66 76 74 70 80 69 68 68 64 78 81 83 86
35 36 40 44 45 48 53 49 47 60 80 77 81 94 86 71 75 64 65 77 88 90 68 79 83 89 80 64 63 59 60 56 54 57 61 75 69 71 78 76 90 58 57 61 67 80 79
34 35 37 45 52 49 45 53 48 50 75 84 93 99 98 91 76 60 64 70 78 93 91 77 83 78 82 88 79 77 69 55 50 42 49 55 61 71 73 88 79 68 64 52 63 70 65
42 58 57 62 67 72 73 63 52 50 67 84 91 99 99 88 68 72 84 83 93 90 91 85 77 79 75 89 91 85 79 65 54 48 37 40 53 63 70 80 89 79 70 61 57 73 65
62 73 70 75 81 85 89 88 82 57 52 79 86 97 99 89 72 84 90 92 94 97 98 93 89 86 71 73 84 81 80 65 60 64 76 71 65 60 60 78 77 70 73 73 73 86 75
77 80 82 84 88 91 97 97 97 89 61 70 85 96 98 83 84 87 85 97 95 94 97 98 96 95 86 83 83 72 73 67 68 70 85 93 88 86 76 73 73 60 70 75 81 79 80
83 85 87 89 89 91 96 98 99 97 88 70 86 95 98 88 83 76 73 75 84 83 87 94 98 99 94 90 75 76 76 77 86 91 94 96 90 86 75 65 55 57 63 72 73 69 72

GFSGBSN_prec_cthk_066.txt.gz
RH
49 47 47 48 47 49 53 53 50 50 48 45 43 39 37 33 29 25 20 17 15 13 12 12 14 12 9 9 5 7 10 10 12 17 19 27 26 24 23 32 37 37 31 29 26 20 21
53 51 52 52 50 52 51 50 49 49 48 48 49 44 35 33 29 23 19 16 14 12 12 14 16 14 12 15 5 8 9 12 15 18 19 21 28 24 26 35 41 38 36 33 32 23 23
57 57 58 55 57 53 52 54 52 48 49 49 49 46 45 42 31 26 20 16 14 14 17 15 16 16 17 7 7 9 10 11 14 19 18 20 25 27 31 41 45 44 39 35 34 24 22
61 65 61 61 57 52 45 47 52 52 46 44 44 46 41 34 32 32 28 23 19 21 19 14 16 18 14 10 13 13 11 10 14 18 19 22 24 28 37 46 49 47 44 43 33 27 20
65 65 62 58 53 53 58 65 62 56 52 46 45 42 40 40 35 29 25 22 20 20 18 17 19 21 18 15 16 19 18 17 15 17 20 23 23 30 41 51 55 53 51 47 45 26 22
62 58 52 55 59 62 58 57 55 53 52 46 42 40 36 30 29 30 30 26 23 26 23 23 27 29 19 19 19 20 20 21 22 19 22 26 29 29 38 56 61 57 57 55 36 22 29
57 57 56 59 57 53 54 54 51 49 51 51 46 42 37 28 24 27 32 28 30 32 30 26 26 22 16 20 22 22 24 26 24 26 31 29 36 40 40 51 62 57 57 60 44 29 35
58 55 52 47 44 42 40 39 38 37 41 40 35 36 35 28 25 27 38 40 46 48 38 26 21 18 17 18 25 18 22 28 28 33 35 39 44 45 47 55 54 57 61 65 44 44 53
47 46 43 37 36 35 35 32 33 30 27 25 22 19 21 20 19 26 35 38 41 41 38 25 25 25 21 22 25 21 22 29 30 36 40 50 49 55 58 60 61 57 63 64 45 40 55
42 37 34 32 30 31 34 30 29 26 20 17 16 14 13 10 9 15 25 30 35 34 46 30 29 27 25 27 28 26 24 26 36 35 43 51 51 62 67 72 69 73 62 59 40 49 59
29 29 30 32 30 27 26 28 27 25 21 19 19 16 16 14 9 12 16 16 23 32 43 33 33 34 30 28 28 28 25 27 26 36 39 43 52 64 71 78 75 72 70 66 51 55 55
29 26 24 23 22 22 23 23 25 24 20 21 21 22 21 18 13 17 19 15 21 38 42 31 31 33 34 33 34 31 32 29 24 28 37 35 41 57 67 76 80 80 76 65 53 56 69
29 28 22 18 17 20 21 21 19 21 22 21 24 23 24 17 14 14 18 23 34 49 18 35 36 36 37 35 36 36 37 36 34 29 30 27 36 50 64 81 81 84 85 78 72 69 69
21 18 18 17 19 18 19 21 22 20 22 23 30 30 26 18 16 16 23 32 44 23 25 48 40 41 43 36 33 39 42 43 40 35 33 34 41 45 64 76 86 82 89 88 94 94 72
18 18 19 20 21 24 26 27 25 21 23 28 34 32 28 17 22 25 30 41 27 21 31 44 47 41 43 37 37 45 50 50 48 41 43 45 48 49 60 75 84 92 94 81 91 82 89
19 19 19 21 22 27 27 26 26 24 27 34 36 35 22 20 30 33 40 31 24 17 27 45 69 53 54 46 43 51 53 58 61 59 52 52 51 44 54 71 75 80 88 97 98 97 94
18 18 20 21 22 23 27 27 25 25 31 39 40 42 32 39 38 43 47 36 22 15 19 45 63 72 59 63 59 59 69 77 71 65 68 64 55 47 55 71 81 84 97 96 92 90 96
19 20 26 27 27 29 31 35 33 30 41 44 45 48 42 59 55 51 50 35 27 23 25 34 55 68 71 66 66 64 64 66 63 63 70 75 74 67 55 60 64 80 89 90 98 91 90
20 25 28 28 27 29 33 40 39 38 40 49 54 48 45 60 84 69 55 46 43 36 30 33 56 79 69 66 68 69 63 66 61 53 61 59 68 68 51 51 63 68 77 84 90 95 96
28 24 28 30 29 31 37 38 37 40 54 57 65 64 57 61 72 87 95 89 71 64 53 45 43 70 75 68 66 58 62 63 57 53 49 49 56 60 74 81 88 89 86 85 95 99 93
23 27 30 31 32 34 33 34 37 48 64 69 77 70 66 82 85 81 94 91 92 91 87 66 48 63 69 62 60 60 58 57 55 51 55 54 55 56 53 66 74 78 94 90 86 88 91
29 38 36 36 35 43 47 48 47 56 69 76 76 73 72 70 88 84 85 91 87 83 80 76 69 67 78 73 63 61 59 52 59 61 65 67 62 59 54 52 60 71 82 90 96 94 85
36 39 41 41 40 47 49 44 46 64 71 80 78 78 82 71 80 92 84 81 80 79 90 85 90 84 64 65 70 70 72 65 58 55 65 70 73 67 62 57 59 67 71 79 83 93 93
37 38 38 34 34 38 40 44 48 54 70 72 73 78 83 76 76 78 84 84 82 78 83 85 93 98 84 67 76 79 78 70 55 52 54 60 64 67 70 58 69 60 61 66 78 88 87
34 36 33 31 39 54 50 43 55 53 55 67 73 81 79 81 84 79 78 79 75 75 68 72 80 79 89 76 73 71 72 64 46 45 48 53 57 62 71 66 50 54 72 71 81 88 78
45 39 38 58 69 64 62 60 57 58 58 60 69 83 84 88 79 74 74 66 70 81 81 82 79 86 94 94 91 81 74 66 64 54 49 53 50 56 68 65 64 63 74 76 68 88 82
24 22 44 59 66 64 73 77 80 76 71 65 62 79 85 90 83 84 74 68 71 85 89 90 81 89 91 91 88 89 83 71 67 60 57 64 64 55 57 63 53 49 65 75 82 94 88
27 56 70 73 75 77 81 85 88 91 84 77 62 71 84 88 83 84 75 67 80 92 98 94 98 97 89 85 80 78 78 65 62 52 61 73 78 77 68 67 60 43 70 76 91 93 91
49 67 74 77 81 82 82 87 91 97 98 94 84 69 87 92 83 80 73 71 82 84 91 90 91 93 99 89 81 81 77 72 61 71 93 97 91 89 81 74 74 67 68 78 84 92 93

GFSGBSN_prec_cthk_069.txt.gz
RH
54 52 49 47 47 49 48 47 47 45 43 41 39 45 42 41 34 32 30 29 28 26 24 22 18 18 18 16 9 7 11 12 11 13 14 18 23 24 22 22 22 27 26 26 26 27 24
55 54 53 51 53 52 52 51 51 49 45 45 46 41 41 40 36 36 30 28 29 27 26 26 24 20 23 22 10 10 8 10 12 13 15 18 19 23 24 24 24 25 28 30 29 29 29
56 57 56 54 55 56 54 51 51 48 45 42 44 45 45 44 39 37 39 38 32 30 34 29 25 22 24 14 11 8 11 10 12 14 16 19 19 24 24 26 25 27 32 34 37 32 29
58 58 60 62 61 58 54 53 53 49 49 49 47 44 43 44 42 44 35 32 38 36 32 30 28 25 21 13 11 14 12 9 10 13 16 20 22 24 25 26 30 35 36 43 38 37 33
63 63 66 65 63 58 54 52 54 54 53 53 52 51 45 38 38 36 38 40 30 35 36 36 38 37 28 21 15 17 17 17 14 14 17 22 25 26 27 29 36 37 45 48 46 41 40
68 66 62 60 55 53 55 54 53 54 55 54 55 52 49 43 36 31 32 29 37 45 41 38 42 39 23 22 18 19 20 19 21 18 18 20 27 27 26 33 39 45 48 51 47 49 49
70 65 54 53 56 55 53 50 49 47 45 48 49 48 48 40 36 34 36 29 33 39 40 41 39 34 25 24 20 19 20 21 22 24 28 28 32 31 29 32 33 39 48 52 49 51 56
64 60 60 58 56 50 45 45 42 38 35 33 30 29 30 28 29 33 38 40 47 51 48 31 28 26 26 27 22 18 24 23 29 30 33 37 37 31 37 38 38 34 40 53 47 59 56
64 60 54 46 43 39 43 42 36 31 28 25 22 19 17 11 9 14 21 31 38 44 48 28 29 26 26 28 25 18 23 24 32 37 40 40 33 43 47 47 47 45 43 52 52 64 60
54 47 43 42 40 36 35 34 34 31 27 21 17 15 13 8 12 9 18 23 24 27 39 24 30 32 30 28 27 23 27 26 35 36 40 43 38 48 50 54 54 53 56 57 54 60 59
45 41 36 34 35 34 32 27 27 25 22 19 16 16 13 12 12 10 12 11 13 24 37 17 34 35 34 31 32 31 31 29 36 39 44 40 47 51 49 51 58 58 69 75 68 69 64
38 32 30 29 27 22 22 21 22 22 19 20 18 20 18 15 13 14 11 13 17 32 32 19 30 34 36 34 34 34 35 34 35 36 40 38 38 41 39 47 58 64 79 79 75 73 77
32 29 26 27 26 22 18 18 18 17 17 16 18 20 19 17 15 14 11 19 30 45 12 32 33 35 39 40 41 37 37 38 40 41 36 29 28 32 40 53 60 73 94 92 88 85 72
28 32 32 26 20 19 18 17 20 21 18 17 18 21 18 19 19 17 15 28 38 15 20 22 33 36 39 43 41 40 40 42 42 42 39 39 32 37 40 49 62 72 95 96 91 87 77
35 26 20 18 19 20 20 22 22 21 20 19 23 23 18 20 18 19 25 40 21 20 20 23 27 48 48 49 41 44 46 45 47 49 48 47 44 40 44 53 67 87 94 94 96 93 87
17 17 18 18 20 19 21 22 21 19 20 23 26 24 21 24 22 27 33 30 26 24 27 24 32 53 61 57 52 52 55 56 57 53 51 54 53 41 43 57 76 92 93 98 98 98 95
20 18 16 18 19 21 20 20 21 24 26 30 32 28 25 35 35 37 42 38 32 23 24 24 33 45 63 68 66 64 68 71 72 66 66 65 58 54 49 64 75 95 98 98 96 94 91
27 19 17 19 24 23 25 25 29 29 33 33 38 36 34 43 55 50 43 38 37 36 30 30 27 27 53 80 74 75 69 72 79 76 82 80 79 82 62 51 66 78 89 97 98 98 94
29 21 21 22 25 23 23 25 30 36 37 39 42 39 40 45 52 71 73 65 57 48 40 40 37 42 56 74 89 76 75 66 67 70 71 69 81 87 64 53 66 81 89 92 95 96 91
24 20 20 19 22 23 24 28 33 36 38 47 50 49 49 59 59 67 91 92 89 82 74 69 54 44 51 67 82 84 78 72 72 71 66 64 70 76 76 80 82 86 89 92 96 98 91
26 23 22 25 24 26 27 29 30 34 44 50 58 59 65 67 72 72 89 90 97 95 89 91 75 62 65 84 78 85 78 81 77 74 66 66 64 71 62 58 66 72 85 92 98 97 98
24 21 27 28 26 29 32 36 38 39 49 59 64 67 69 70 68 78 80 88 92 94 86 95 92 78 78 84 89 94 79 77 77 78 70 66 61 65 59 55 51 58 68 80 89 96 96
27 28 27 28 34 35 39 41 40 45 54 62 69 75 73 72 70 76 78 75 88 87 81 84 87 89 77 69 83 88 83 75 74 67 65 72 78 70 66 61 51 48 56 66 78 85 85
28 29 28 29 32 33 35 40 45 49 52 64 68 73 73 69 75 73 76 79 79 80 79 75 86 87 73 62 66 77 68 70 68 67 64 60 65 71 66 56 60 39 48 58 73 77 87
29 25 24 27 30 30 34 50 49 45 61 56 63 68 69 67 73 75 80 87 80 72 72 73 85 95 90 95 75 76 76 64 69 70 68 57 59 62 64 60 47 42 59 65 72 74 80
27 34 40 42 41 45 58 62 54 48 60 60 57 64 71 74 69 74 74 74 82 86 80 81 84 88 98 98 90 82 82 74 65 60 60 55 56 58 68 65 63 50 50 62 64 71 75
35 31 30 30 36 50 58 62 63 64 68 70 61 58 67 75 71 78 79 78 73 75 87 92 83 91 99 95 93 86 78 72 61 64 66 73 73 70 65 65 52 35 41 57 74 76 74
30 26 31 35 53 61 68 71 75 78 79 78 75 68 61 68 68 82 84 79 74 69 78 86 89 82 92 95 91 86 81 73 69 64 61 62 69 71 69 67 58 36 35 54 76 81 90
28 34 31 50 61 70 73 77 78 82 83 86 85 77 73 71 65 73 76 73 66 63 69 77 92 97 98 97 93 92 90 85 77 74 65 69 91 86 77 71 71 69 58 53 73 82 98

GFSGBSN_prec_cthk_072.txt.gz
RH
65 61 56 55 52 50 49 47 48 47 47 45 43 43 39 35 32 31 32 31 28 27 27 28 32 32 32 29 19 17 17 17 17 14 15 15 19 21 20 19 19 22 21 21 23 26 26
63 61 60 58 56 55 53 51 50 50 48 46 44 42 38 35 30 31 33 32 32 30 30 28 30 30 35 35 25 20 15 12 14 14 14 16 16 20 21 22 23 22 24 23 24 25 28
66 62 58 56 55 55 55 55 55 53 50 47 45 41 37 34 30 30 33 37 32 31 35 34 32 37 42 31 33 27 18 12 11 14 14 17 17 19 20 20 22 24 25 24 23 28 33
64 62 59 60 58 58 57 55 55 53 50 45 42 41 40 36 35 33 35 35 36 39 34 35 42 40 36 32 29 27 24 15 14 14 16 18 20 20 20 20 21 25 28 32 27 28 34
70 69 65 64 62 60 60 58 54 50 48 46 46 45 43 39 40 39 38 34 35 37 46 41 38 45 42 36 32 30 30 28 18 14 15 19 22 23 22 23 27 31 35 35 34 35 38
77 72 70 67 64 61 56 51 51 50 48 47 48 46 45 42 43 41 39 36 36 37 39 43 51 50 37 44 41 43 37 32 32 26 22 23 25 25 24 27 34 35 39 38 36 34 42
81 78 76 70 62 56 52 52 51 48 43 42 40 38 34 32 30 31 36 37 38 42 42 37 34 37 36 30 41 39 34 31 32 29 26 30 30 29 26 28 28 32 35 36 34 36 45
82 79 75 72 63 62 60 57 48 40 37 34 31 27 25 24 21 23 30 36 47 47 43 30 30 32 29 33 42 25 30 28 28 29 32 38 41 30 31 32 32 34 35 33 31 32 47
87 78 71 71 67 57 45 39 43 39 35 29 24 22 19 16 15 15 19 24 28 31 34 20 26 30 33 34 34 31 26 29 35 36 39 40 34 38 39 40 47 48 46 43 39 38 44
80 73 70 62 53 44 40 41 37 35 30 27 24 20 17 14 15 11 16 18 20 22 36 17 28 32 32 33 37 29 31 29 36 39 43 44 36 38 41 51 49 52 48 48 44 46 52
72 65 58 48 43 40 36 31 28 27 26 22 19 16 15 13 13 11 10 9 12 23 14 9 30 35 37 36 37 35 36 38 40 39 43 39 44 45 47 47 46 47 51 57 57 59 62
66 60 48 41 37 30 28 26 25 23 19 18 15 14 14 16 15 12 8 9 15 19 11 14 29 34 37 39 38 38 38 38 37 43 45 42 38 41 41 40 42 46 57 61 64 68 77
62 51 42 32 28 26 24 22 22 23 25 18 13 11 13 15 16 13 9 15 17 19 9 21 28 24 29 34 39 40 43 41 44 46 42 35 31 31 34 40 39 52 69 78 79 80 80
47 37 30 31 30 33 33 27 23 22 17 15 13 11 13 16 14 13 11 21 16 13 19 21 20 25 32 35 38 43 43 46 43 43 46 43 38 40 41 40 47 57 67 81 82 82 79
43 39 30 29 34 30 28 22 19 17 15 14 12 13 14 15 16 15 18 29 15 25 27 25 17 23 31 42 42 44 43 43 45 47 53 52 48 46 48 49 49 63 78 80 90 95 96
34 30 37 36 31 26 19 18 16 17 17 17 17 16 18 22 21 23 26 26 25 28 30 29 29 32 39 47 56 53 49 50 50 50 55 55 57 52 55 54 59 68 83 91 96 98 91
42 41 28 24 21 19 18 17 17 20 22 22 21 20 25 31 31 31 37 33 30 23 29 32 36 37 35 38 55 66 59 64 68 66 59 55 59 59 67 61 71 77 85 95 97 89 98
46 33 22 19 24 20 19 20 23 26 25 26 26 27 31 35 38 48 48 46 42 37 37 39 36 32 30 34 46 67 71 66 67 76 84 78 78 80 71 64 62 73 82 88 98 98 96
40 33 26 21 22 22 20 20 23 27 28 29 32 32 32 36 44 52 54 55 61 61 57 50 46 38 45 49 53 60 83 76 70 80 90 81 97 90 70 74 76 76 82 90 95 97 99
33 32 25 21 19 22 20 21 24 27 35 35 36 40 41 50 54 61 61 63 71 81 85 73 67 60 48 50 52 58 79 91 88 80 79 74 80 74 76 76 78 73 78 86 98 98 97
33 27 27 20 18 22 23 22 24 29 35 37 43 48 52 57 64 64 64 68 76 92 96 92 92 88 81 70 47 55 68 90 87 89 78 67 70 78 73 72 71 67 67 72 85 91 98
31 28 23 24 28 23 23 26 32 38 39 44 52 56 58 61 61 64 66 70 78 91 80 88 97 94 87 77 59 78 79 86 97 85 75 79 87 82 67 62 58 52 44 51 67 76 85
33 27 23 29 27 26 27 32 36 38 45 52 58 60 62 65 65 67 64 69 71 75 74 84 84 91 91 85 69 67 86 93 95 93 87 83 83 80 66 61 49 40 46 46 59 73 78
28 30 31 30 27 28 33 38 46 46 52 52 51 59 62 63 65 64 66 67 76 76 74 71 76 90 95 95 75 61 82 93 92 85 82 79 77 71 69 56 56 30 39 48 57 70 77
30 31 34 31 27 25 25 29 35 43 54 48 49 56 60 60 60 58 66 72 73 72 71 72 76 81 80 92 84 69 71 82 78 74 77 76 69 70 67 62 46 30 49 62 62 57 70
33 33 28 25 27 29 31 39 46 54 54 52 57 57 59 61 55 57 62 69 75 74 71 70 78 76 85 95 98 83 63 59 69 62 66 68 68 69 77 70 63 35 47 45 49 58 76
30 29 39 42 38 39 44 56 59 62 64 63 66 68 63 58 58 63 66 73 73 74 72 74 77 86 87 98 98 93 78 71 72 65 80 82 79 75 74 73 56 34 41 45 54 59 70
32 40 41 31 26 24 35 47 51 61 69 72 71 74 73 62 52 60 68 75 76 77 73 71 81 91 94 98 96 94 84 79 77 70 73 69 76 78 72 74 63 44 39 39 53 64 78
35 35 32 25 26 32 52 58 62 68 74 79 76 80 77 74 66 59 62 67 74 74 72 70 78 91 98 95 96 95 94 92 88 83 76 75 68 71 77 71 68 64 71 65 59 61 82

GFSGBSN_prec_cthk_078.txt.gz
RH
87 85 77 74 69 65 63 59 54 50 46 44 42 40 38 37 35 33 30 27 25 24 23 23 25 26 27 31 24 19 21 25 28 28 30 32 28 27 28 27 22 23 21 18 19 19 16
91 89 83 75 72 69 67 63 57 52 48 46 45 42 40 37 35 32 29 27 26 24 22 22 24 27 34 31 26 23 21 24 28 30 32 33 33 34 35 30 23 24 21 21 21 20 18
97 91 86 82 78 75 68 63 59 59 55 51 46 45 42 36 32 31 29 27 26 26 25 24 24 28 33 31 26 29 31 27 28 29 30 31 31 35 38 34 25 22 22 20 19 20 21
97 91 87 86 81 77 71 67 64 59 58 54 51 46 40 35 33 33 30 29 28 30 30 30 29 31 33 28 31 32 32 34 29 31 36 43 37 42 38 36 27 22 22 21 19 23 23
96 92 91 89 84 79 75 70 65 61 59 56 50 43 36 33 34 32 30 29 29 29 33 31 36 38 36 31 35 41 37 41 36 33 35 34 43 42 35 33 31 27 25 25 24 22 23
97 95 95 90 81 78 72 70 68 65 60 54 48 40 35 34 33 30 25 24 25 26 29 35 37 38 35 36 39 37 40 41 48 44 38 46 38 37 41 33 37 31 29 26 28 26 25
98 98 97 88 81 77 72 70 69 65 59 54 48 41 35 32 28 25 22 22 23 26 24 24 24 29 26 28 32 36 38 38 43 46 48 37 39 41 33 39 32 37 37 30 24 23 24
98 97 96 91 84 79 79 77 71 63 58 52 43 36 33 27 22 20 20 22 23 20 22 21 28 29 27 26 27 29 37 37 44 49 49 55 43 32 35 39 44 39 39 40 41 33 30
98 97 97 93 86 81 75 71 64 56 51 45 38 31 26 22 21 19 20 21 21 22 26 18 29 31 32 29 31 28 26 37 42 47 48 46 49 44 42 38 39 40 44 36 38 39 39
97 97 97 97 93 87 80 78 65 52 44 37 31 28 24 22 22 19 22 17 17 22 24 16 28 32 33 32 36 33 26 26 36 40 51 51 34 38 46 40 42 48 52 47 48 51 35
97 97 97 92 76 78 75 62 51 45 38 33 29 25 24 20 18 20 16 14 18 25 13 18 29 28 24 29 30 32 32 30 32 35 39 43 58 50 49 43 50 52 58 45 42 42 42
97 97 90 85 82 74 66 56 46 37 32 31 26 22 20 19 17 15 13 16 20 19 11 15 22 19 16 20 27 30 32 34 40 45 48 42 43 57 55 55 52 49 44 40 39 45 49
96 96 92 87 72 60 53 42 38 34 34 29 23 21 21 18 18 15 14 17 15 10 8 19 21 17 12 18 22 25 32 35 38 44 48 44 44 49 59 56 50 48 41 35 52 59 45
93 89 84 83 67 63 51 42 37 35 29 24 20 22 21 19 15 11 11 12 9 11 13 18 17 13 13 20 19 20 26 30 35 39 40 43 48 43 50 52 50 51 45 45 56 50 46
90 87 75 63 61 54 48 45 37 31 24 27 27 23 21 15 11 8 12 14 13 23 22 21 15 16 17 25 20 21 25 30 32 35 41 45 47 50 56 57 55 65 61 53 59 52 60
86 77 65 57 52 49 43 33 30 29 35 24 23 24 20 13 11 11 14 16 20 24 24 21 19 26 26 33 21 30 29 48 54 46 39 45 46 49 58 60 58 66 65 68 72 73 60
76 65 53 50 52 40 33 37 34 35 25 25 24 22 19 14 13 18 22 21 22 23 25 23 26 28 23 26 21 27 29 55 54 58 53 46 49 59 58 63 61 69 68 70 79 74 63
63 59 51 40 40 46 43 46 42 30 26 17 15 23 19 13 23 26 28 29 28 31 33 32 31 34 31 32 26 27 26 47 70 63 62 63 67 66 54 56 56 62 64 70 73 74 82
67 58 55 47 50 50 49 33 29 25 18 16 21 22 19 19 34 31 32 33 35 39 46 45 47 49 46 45 50 39 34 32 62 73 78 75 74 70 67 68 64 65 72 82 86 87 80
73 74 59 48 59 51 35 29 27 20 18 18 23 29 30 31 33 35 37 35 38 48 53 54 64 65 63 59 71 55 50 49 49 56 79 94 66 60 60 87 78 79 70 69 71 78 71
81 67 57 64 43 39 32 25 21 21 20 19 24 30 33 42 43 36 37 37 39 47 51 55 76 80 85 80 76 78 72 42 45 51 69 85 95 64 60 79 84 72 66 60 61 57 65
65 67 64 52 34 32 27 23 20 21 22 25 27 34 35 39 40 37 37 39 40 48 45 50 61 62 71 73 88 90 86 83 65 63 68 94 97 75 67 79 78 69 62 54 52 51 52
62 62 56 45 37 39 29 26 25 28 28 29 29 33 40 40 40 38 42 43 43 43 49 52 53 54 60 72 85 86 84 82 79 78 85 97 98 82 74 77 69 60 49 51 49 49 57
49 50 61 53 38 34 27 28 31 30 31 33 35 35 40 41 40 40 41 40 42 46 55 57 50 57 59 57 60 65 70 70 61 65 84 97 97 88 75 65 61 59 43 44 47 51 55
65 62 58 41 33 32 30 33 33 39 37 39 35 37 40 43 40 40 40 39 41 46 49 51 54 55 54 58 66 68 78 72 47 48 79 93 98 90 72 67 56 45 51 48 53 54 56
48 47 42 35 45 41 30 34 31 33 39 41 38 40 41 44 46 43 43 42 47 49 50 53 55 54 63 68 75 90 89 69 48 48 70 83 90 96 74 62 58 65 57 51 49 53 53
42 35 33 39 46 42 34 29 26 31 41 45 44 43 48 48 46 46 49 52 52 54 55 57 56 62 70 75 91 95 94 67 57 56 74 79 83 82 76 62 57 57 48 45 48 65 61
45 36 33 43 42 32 34 39 38 42 48 48 51 49 55 56 52 48 47 49 55 59 62 63 62 73 77 79 88 96 97 78 68 62 63 73 72 70 70 65 62 57 54 54 65 63 56
36 37 43 43 35 43 43 41 41 46 51 53 58 58 64 66 59 54 52 48 46 53 60 65 68 74 88 88 91 94 96 80 77 78 74 83 86 86 72 76 66 67 68 72 75 77 69

GFSGBSN_prec_cthk_081.txt.gz
RH
90 89 87 85 83 80 75 70 68 65 61 56 50 45 42 39 37 36 34 32 29 26 23 22 21 21 22 30 30 26 22 21 21 22 26 29 28 29 29 28 27 29 30 31 30 25 23
98 94 92 91 88 82 78 73 70 67 62 57 53 47 45 42 39 38 35 30 28 25 24 24 23 22 26 30 27 25 21 23 26 28 29 33 32 34 34 35 34 33 32 29 27 23 21
99 96 95 94 92 89 83 79 74 69 65 61 57 51 48 45 43 40 35 31 28 27 27 27 26 26 30 27 27 26 26 22 28 32 37 37 38 39 37 36 35 34 32 28 27 20 17
99 98 98 96 95 92 89 82 75 70 66 64 60 56 52 48 44 39 34 32 31 30 30 29 27 32 31 29 26 28 30 32 29 30 33 33 39 41 38 36 31 32 31 32 29 29 24
98 98 98 97 97 94 89 82 76 73 69 67 62 59 52 46 41 36 33 32 30 27 24 24 32 37 35 31 32 35 35 35 36 35 33 33 35 42 47 49 48 42 41 38 30 30 30
98 99 98 98 96 93 90 89 86 79 75 70 66 58 49 42 37 34 31 26 25 24 27 35 35 37 33 32 33 35 37 33 34 36 40 39 38 43 47 44 48 37 40 38 38 33 35
98 98 99 98 97 97 94 86 79 75 73 69 61 53 46 40 35 30 27 33 39 42 34 26 24 22 20 22 20 23 34 33 35 37 38 42 45 44 41 48 44 44 35 35 39 34 32
90 95 97 97 97 96 88 81 80 76 72 64 58 50 42 36 33 33 33 32 27 25 22 22 25 26 27 26 24 20 20 27 34 40 41 45 45 45 46 38 42 42 41 42 42 44 44
90 91 94 97 97 96 93 91 85 82 70 61 53 45 38 36 35 36 30 25 20 22 26 22 28 32 32 30 29 27 22 24 27 38 41 50 53 56 53 49 43 43 39 40 43 39 36
90 96 96 98 97 97 93 88 79 66 58 49 45 40 37 32 33 28 30 24 22 22 33 27 34 33 32 29 36 26 24 24 27 33 38 41 41 50 44 44 49 49 48 51 51 47 41
97 97 97 97 97 97 94 83 78 74 58 46 42 33 31 31 31 31 26 22 23 27 30 26 35 28 19 23 24 34 23 23 25 32 34 35 44 44 47 49 42 49 53 52 49 47 46
97 97 98 97 97 94 86 83 68 53 45 37 35 33 30 32 29 26 22 18 26 41 26 24 26 21 15 24 26 28 24 25 26 32 31 35 39 39 40 52 58 48 56 56 49 44 53
97 97 97 95 90 92 88 73 58 51 48 41 33 30 29 27 30 19 17 29 39 21 15 23 24 16 12 10 17 28 33 40 36 45 47 56 49 46 47 45 53 60 56 49 45 58 54
97 97 98 97 94 76 65 60 54 46 38 34 33 31 28 27 22 19 24 31 21 15 15 17 15 13 12 12 20 20 21 23 32 43 42 38 47 55 48 45 51 54 58 56 60 56 66
96 97 95 93 86 80 62 54 47 42 37 36 30 32 28 25 20 22 26 25 21 21 19 18 14 12 15 19 29 20 22 20 27 48 50 49 46 55 49 45 48 62 60 48 60 52 46
97 96 96 90 78 68 57 50 42 40 39 33 35 41 38 21 18 21 19 20 18 17 17 20 18 16 22 26 30 25 29 40 49 50 44 37 50 56 66 48 48 50 66 83 66 70 62
97 93 80 71 70 61 48 47 46 37 32 32 43 42 31 21 20 20 27 20 17 19 20 21 19 24 23 21 23 24 23 43 62 59 64 66 56 48 57 59 51 62 58 67 68 70 75
93 83 68 68 61 58 55 37 30 33 37 35 38 48 27 16 26 23 23 24 21 27 25 26 25 28 29 28 35 36 31 25 52 62 61 79 79 59 51 54 60 60 64 73 83 62 67
74 67 58 51 58 50 37 38 45 44 41 40 37 32 17 23 35 28 24 25 30 31 32 36 38 38 38 43 47 39 38 40 35 46 83 79 63 72 64 61 61 53 47 61 75 81 75
74 72 66 50 48 48 49 49 44 33 29 36 35 35 27 24 26 33 34 32 36 39 40 40 42 46 51 49 51 56 62 57 53 61 62 77 64 70 69 74 82 85 61 61 71 78 73
82 76 63 58 53 59 55 38 31 31 26 30 33 32 32 37 37 38 36 33 39 39 41 44 54 53 49 50 48 56 72 78 71 60 52 77 76 65 63 61 72 70 93 73 77 73 64
79 80 80 65 55 58 38 31 30 26 23 33 24 32 26 37 40 39 34 35 35 44 36 48 47 49 47 48 56 61 67 74 76 73 80 80 62 83 76 70 65 57 74 64 60 53 50
85 82 66 62 66 37 34 31 23 24 30 37 26 30 39 39 39 43 43 41 37 37 39 41 46 48 50 55 53 52 55 59 63 78 81 91 81 87 74 83 65 70 69 65 57 59 57
75 65 63 66 55 44 37 32 31 27 30 38 34 35 41 43 41 42 38 35 35 37 42 44 48 50 46 53 45 43 46 58 71 61 69 87 80 93 91 79 77 53 60 59 57 62 65
73 62 60 65 48 45 39 35 30 29 28 42 35 39 44 46 42 43 36 35 36 37 41 46 49 53 48 47 54 54 54 69 68 59 58 69 94 94 97 67 64 58 67 66 63 88 75
65 52 50 57 62 49 39 32 31 33 33 42 43 41 42 51 45 37 38 39 47 47 48 48 50 48 51 63 64 72 81 76 72 56 44 70 91 96 91 78 71 80 66 55 48 66 70
69 75 67 59 60 52 37 34 31 28 32 43 45 38 45 49 45 40 52 53 46 49 52 55 54 54 62 69 77 93 91 72 75 57 63 77 84 91 94 72 69 74 61 46 50 82 72
49 59 55 46 48 53 47 32 27 24 34 44 49 45 49 48 50 42 43 42 46 48 53 69 57 80 68 75 85 92 96 84 74 62 70 70 72 76 76 76 75 63 58 59 75 68 58
40 44 41 40 44 45 39 30 34 37 44 46 54 52 52 54 57 50 46 43 39 43 53 58 62 65 76 82 81 93 96 85 85 78 64 86 92 97 92 95 85 71 66 72 71 67 67

GFSGBSN_prec_cthk_084.txt.gz
RH
98 98 96 95 92 90 88 83 79 77 75 72 65 61 55 51 48 45 43 41 39 35 32 29 26 23 21 28 27 27 26 20 19 21 22 27 24 23 23 23 26 27 27 29 32 34 35
98 99 97 96 96 95 92 87 82 80 79 73 68 64 59 53 52 49 46 45 40 37 34 30 27 27 27 31 28 27 25 23 23 29 29 26 29 28 28 28 30 31 29 28 26 28 30
97 98 98 98 96 96 95 91 87 84 79 76 70 64 59 56 56 53 49 46 43 39 35 32 30 29 33 31 29 27 26 23 24 26 33 33 31 33 35 34 33 34 34 34 35 35 30
96 98 98 98 97 97 96 95 94 89 84 78 70 63 60 60 59 56 50 45 41 38 35 32 30 31 33 31 30 27 26 26 25 24 25 31 34 35 38 41 38 36 34 33 29 27 28
89 93 99 98 98 98 99 97 95 91 86 79 72 68 66 62 59 53 48 43 38 35 31 30 35 40 33 34 30 34 32 30 31 28 26 28 29 31 34 42 38 40 43 42 37 32 37
69 77 87 95 99 99 98 98 96 92 88 80 76 73 68 63 57 49 44 40 37 35 34 36 38 43 39 37 36 31 32 31 31 31 32 30 31 32 36 41 40 43 43 42 38 38 44
63 66 79 80 98 96 97 98 96 91 89 86 85 76 69 61 53 48 41 43 50 54 46 37 41 33 26 25 21 20 20 31 27 31 33 33 33 35 38 41 41 41 42 39 41 41 46
62 73 77 83 75 78 86 93 95 93 90 83 76 71 63 54 47 43 42 46 41 41 34 32 26 25 26 26 24 23 18 24 26 30 33 35 37 37 40 42 42 44 40 39 37 35 39
73 71 71 71 78 86 90 88 86 89 81 76 71 69 58 51 47 42 41 37 34 32 37 34 28 30 30 26 28 29 22 23 29 30 33 38 38 44 50 46 48 45 46 41 41 41 40
77 77 77 79 79 88 97 89 85 84 78 82 73 61 53 43 43 42 45 34 35 34 42 36 30 29 28 27 34 26 23 23 26 29 33 34 34 36 42 44 42 47 42 45 55 54 55
81 88 93 89 89 90 88 91 88 96 85 64 57 47 44 44 48 44 40 32 33 34 43 41 46 36 27 24 27 39 30 20 22 31 29 25 31 34 34 37 37 37 47 49 53 52 51
90 97 98 97 97 97 98 96 92 79 75 62 50 46 45 40 37 40 33 27 30 47 41 32 38 29 19 23 28 36 28 23 21 24 25 23 24 27 25 29 40 46 47 50 51 54 61
97 97 98 97 97 96 99 94 95 91 66 53 46 38 35 42 46 34 26 36 50 45 30 34 34 23 15 12 11 16 25 38 39 41 42 45 49 48 48 41 35 42 47 56 58 54 55
98 97 97 97 97 97 97 92 73 59 50 42 38 43 38 35 29 28 30 42 43 30 32 29 17 13 12 11 11 14 19 21 23 29 36 41 41 42 60 53 48 46 50 58 62 67 59
97 97 97 97 97 97 92 83 73 65 57 48 39 36 39 40 33 27 38 48 44 42 26 18 10 11 13 18 20 26 24 21 22 21 39 56 50 52 55 54 51 40 45 50 63 54 59
97 97 97 97 96 92 84 77 64 53 44 42 53 54 48 31 22 40 44 39 34 25 17 14 14 13 18 22 26 26 26 27 41 58 56 52 59 38 49 56 54 48 45 69 88 81 64
97 97 96 96 95 83 71 61 56 52 45 47 53 55 34 30 37 38 43 38 26 18 15 17 19 21 21 21 20 20 19 19 28 48 62 65 61 47 49 73 62 53 48 41 59 71 80
97 96 91 83 83 73 64 55 46 50 48 44 43 53 41 32 46 39 34 24 19 22 20 23 21 21 25 26 27 28 30 30 30 35 43 61 73 73 59 52 57 56 56 63 78 64 71
96 91 82 78 76 66 55 54 55 41 38 42 54 50 31 41 47 34 27 22 24 26 28 28 32 32 34 34 35 35 36 40 35 33 53 55 61 73 60 58 54 63 61 75 71 75 77
86 83 72 66 65 62 59 45 32 35 44 58 54 54 34 33 33 35 27 27 29 27 33 33 35 34 39 38 42 43 39 53 48 59 54 65 66 77 75 79 84 86 81 79 64 76 72
83 79 67 57 55 51 37 33 45 45 45 44 46 53 44 39 33 32 30 29 38 33 33 33 45 39 42 46 48 45 56 48 56 61 60 74 70 68 70 63 73 80 92 80 77 86 69
87 81 75 68 52 39 49 53 43 33 38 45 37 46 36 36 35 34 34 33 36 38 31 43 46 39 45 50 48 56 52 55 49 53 66 79 73 61 64 52 61 76 76 77 78 94 83
90 81 79 62 56 56 55 39 31 33 41 46 31 35 42 37 35 37 45 42 36 32 33 31 37 42 46 49 50 50 44 39 41 45 50 74 94 90 58 64 61 67 54 57 64 74 70
89 76 73 71 61 57 49 36 38 34 41 36 36 36 38 40 39 39 41 35 32 39 40 41 43 44 51 49 42 34 31 32 37 48 59 62 79 88 76 78 76 45 53 52 62 78 80
93 86 78 62 66 65 41 39 30 32 41 37 35 42 43 48 38 40 35 33 39 35 35 39 45 48 44 43 49 46 43 54 62 68 77 64 75 92 91 87 79 68 62 53 68 95 78
86 79 68 66 71 59 48 40 43 38 35 38 42 40 39 50 40 38 32 35 41 46 55 59 57 48 44 57 59 65 62 72 74 90 65 60 70 93 86 96 96 99 78 59 56 90 88
76 73 65 66 65 55 47 46 40 36 37 43 41 38 41 50 42 35 53 59 43 46 48 59 62 48 58 64 69 83 80 70 84 80 60 58 76 83 91 96 98 93 82 58 54 87 84
64 70 67 59 58 68 62 46 35 32 32 41 43 39 42 47 44 37 40 40 46 49 55 55 51 82 61 72 87 84 91 86 91 82 64 65 82 83 89 97 97 81 66 72 80 76 69
60 66 73 76 60 70 74 51 36 27 31 44 49 42 40 41 48 41 39 39 40 43 43 45 52 61 74 81 74 84 90 98 96 91 83 96 95 98 96 98 93 87 75 75 72 68 63

GFSGBSN_prec_cthk_087.txt.gz
RH
87 93 92 97 97 97 95 94 91 92 89 84 82 79 78 71 68 62 58 53 52 48 44 40 36 33 30 31 30 24 28 27 24 21 21 22 25 23 23 23 25 26 26 28 27 28 28
82 91 97 91 97 97 97 96 94 92 92 90 86 83 80 74 69 65 61 58 55 53 47 41 38 33 31 38 30 31 30 28 25 26 27 28 30 31 28 26 26 26 26 25 23 26 26
69 76 88 93 90 99 98 97 97 96 93 90 87 87 83 75 70 65 63 61 58 53 47 42 37 35 36 34 31 33 33 29 24 27 30 34 32 33 33 33 31 30 29 28 26 27 27
41 61 75 87 95 94 98 99 97 98 95 92 91 87 81 77 69 66 63 63 59 52 44 40 39 39 36 28 32 30 30 30 28 25 26 29 34 33 32 33 34 35 33 32 28 28 25
29 40 50 63 81 95 96 98 95 99 98 96 94 90 83 75 70 66 64 59 57 50 44 42 38 43 40 40 37 36 35 31 29 29 27 25 26 30 32 31 35 36 36 33 27 33 36
30 38 43 52 55 71 92 91 93 94 97 98 95 90 85 79 74 68 64 57 53 51 48 44 49 51 37 39 39 37 33 31 30 31 31 29 26 27 28 32 39 39 38 35 36 33 41
36 41 48 52 58 59 63 73 73 81 94 97 96 92 89 85 80 74 58 54 55 63 58 45 53 39 40 36 30 27 23 25 28 29 33 32 33 30 29 30 32 35 35 35 32 35 44
40 48 56 62 60 60 68 67 70 83 78 87 94 90 90 82 73 67 60 65 59 53 50 42 37 40 31 27 28 29 24 22 30 30 28 33 33 28 33 34 35 39 40 37 32 35 36
48 58 67 68 70 74 76 69 82 86 77 86 77 84 70 63 60 55 57 55 50 41 40 35 32 33 37 35 34 32 26 23 28 29 29 32 27 31 38 43 45 36 42 38 40 40 39
62 70 75 77 78 78 78 80 79 74 73 78 81 73 64 64 55 58 58 49 38 37 48 46 42 41 40 34 34 29 23 21 21 23 28 31 30 35 40 42 48 39 39 37 39 43 52
80 80 88 92 86 82 76 80 82 77 77 69 71 68 68 52 64 59 53 47 42 40 61 51 50 51 42 37 33 31 30 22 19 23 28 28 28 31 31 29 34 30 32 34 37 45 51
88 89 95 96 94 84 96 91 94 96 89 86 80 65 55 50 59 52 48 36 40 59 61 52 53 42 29 23 26 34 28 25 25 24 24 23 25 30 34 34 35 31 34 38 38 44 57
98 98 98 95 98 98 97 97 96 96 92 73 63 54 57 53 63 49 36 41 59 64 46 46 45 32 23 21 23 22 24 28 37 43 40 34 35 37 38 38 36 42 49 59 48 53 54
97 98 96 98 97 98 97 95 97 96 94 76 57 51 54 56 49 50 45 51 62 51 42 43 38 31 20 12 11 11 17 18 26 35 27 28 27 32 36 40 44 50 52 65 63 60 58
96 97 97 97 98 96 94 96 96 90 73 63 57 46 44 53 43 35 43 56 52 53 45 40 35 24 12 18 19 20 23 26 35 44 48 50 34 32 42 43 47 47 57 48 58 57 66
95 96 97 97 96 96 97 95 83 66 55 46 57 69 53 35 26 37 51 54 47 46 47 38 24 18 18 26 26 26 24 27 28 36 43 55 54 38 55 57 54 46 50 64 75 87 83
96 95 95 97 98 97 92 88 79 66 61 68 60 55 42 36 46 44 54 53 46 36 30 23 20 17 20 19 23 25 24 21 25 27 34 42 59 45 47 62 59 51 49 54 58 68 75
95 96 97 99 97 93 84 76 66 53 46 56 71 76 57 42 45 59 57 47 37 30 24 20 19 19 20 24 25 24 23 24 27 28 29 36 48 56 45 45 54 53 73 73 77 71 68
96 97 96 93 88 79 67 56 58 56 55 68 71 60 29 48 62 56 43 34 27 24 27 26 29 29 31 29 30 31 31 30 33 34 39 38 48 59 35 35 48 75 81 90 88 84 96
93 92 87 84 80 78 73 61 54 56 67 60 51 52 48 55 56 46 34 29 27 27 30 29 33 33 31 35 35 36 32 35 36 39 41 45 49 53 69 52 67 93 86 84 88 98 94
91 88 82 80 79 68 60 63 59 45 45 52 61 69 57 50 43 42 34 29 39 34 33 31 36 33 34 39 37 35 36 41 42 37 42 57 63 68 59 50 61 76 84 78 80 89 96
90 85 78 68 69 74 63 48 38 40 59 60 53 50 52 47 35 30 31 30 36 41 31 45 38 36 33 40 42 44 42 47 45 37 40 50 57 68 70 54 60 67 61 64 72 89 81
93 88 79 71 63 50 41 38 51 55 48 41 51 48 52 44 34 36 39 37 34 35 32 29 31 31 36 38 40 37 36 36 38 40 38 41 56 65 65 75 69 70 59 63 61 87 78
94 87 84 76 59 37 41 61 42 42 44 43 39 40 42 42 40 40 38 36 34 31 32 30 33 34 36 35 34 30 27 28 29 31 41 57 76 76 78 83 86 45 59 69 88 95 95
97 89 85 66 55 50 65 42 40 46 42 38 38 34 41 46 44 38 36 33 30 30 33 35 41 39 37 31 39 43 40 42 47 52 71 79 83 85 89 96 65 57 91 98 89 96 88
96 92 77 75 70 67 58 40 46 46 40 39 41 42 41 44 40 34 34 32 36 41 46 46 49 50 38 48 56 69 68 59 68 69 69 68 82 82 92 97 94 96 95 87 97 96 94
90 90 88 71 64 69 52 44 43 35 43 39 37 40 43 44 38 37 43 44 36 38 40 45 46 46 50 54 69 87 81 71 82 97 69 73 77 81 90 92 93 98 95 93 91 90 89
82 87 83 69 69 69 53 51 47 47 39 40 38 37 41 43 41 37 40 41 35 36 45 40 43 56 59 62 82 85 89 89 95 98 81 74 83 86 89 96 97 93 91 91 93 85 80
78 78 77 72 70 82 59 58 49 40 37 49 43 30 36 37 37 32 29 32 35 36 36 35 42 51 61 62 68 79 90 94 97 97 97 98 99 97 95 98 98 98 91 90 88 80 69

GFSGBSN_prec_cthk_090.txt.gz
RH
49 56 58 65 76 76 81 85 90 91 94 96 91 88 89 87 84 82 77 71 68 62 58 52 49 45 40 38 38 30 29 30 30 28 25 25 26 25 26 24 25 27 26 27 27 26 24
27 33 44 54 63 74 81 80 90 92 92 96 94 90 88 88 88 85 79 75 69 66 62 56 50 45 43 47 35 36 36 35 32 31 28 26 29 30 30 28 27 24 24 24 25 24 25
19 21 25 35 42 59 72 83 87 90 90 96 95 90 89 90 89 84 78 75 69 68 64 58 51 48 46 44 35 39 37 37 34 29 31 33 34 35 34 34 33 32 32 30 28 27 26
14 17 20 24 31 38 51 64 76 82 99 93 95 97 93 92 90 84 78 77 72 69 64 57 52 53 46 39 37 33 36 37 34 32 29 33 32 33 35 35 34 34 32 33 29 29 24
15 15 17 21 28 34 42 54 63 74 86 96 98 98 95 92 91 86 82 79 72 68 64 59 57 55 50 37 39 38 35 35 34 34 33 30 33 33 33 34 36 35 37 30 27 26 28
14 16 18 22 29 35 43 53 57 64 70 77 90 97 96 95 92 86 82 75 68 66 65 65 60 65 43 42 42 44 41 37 38 37 36 33 30 29 30 33 38 35 32 30 30 29 32
15 16 20 24 34 43 47 55 58 59 70 70 74 83 96 91 91 89 89 88 84 74 70 63 51 48 48 45 41 38 38 37 35 35 33 33 35 33 26 26 27 30 32 32 26 26 29
18 20 26 31 37 49 53 56 61 69 69 71 68 72 85 82 78 87 82 72 69 66 62 56 47 51 43 41 35 31 33 30 30 30 30 33 34 29 33 35 34 33 34 31 23 25 29
28 31 32 38 48 59 68 63 76 83 70 69 70 77 78 84 84 64 61 66 67 58 53 45 42 44 36 35 37 38 35 31 29 31 32 33 26 31 34 36 35 36 35 33 32 32 29
36 41 46 51 59 68 75 81 75 73 69 75 80 73 86 81 60 57 63 62 59 49 48 41 39 33 39 44 41 37 34 28 29 30 33 35 28 31 33 33 31 36 37 39 38 38 33
44 50 62 76 77 97 86 92 84 80 79 81 87 79 74 58 61 61 65 58 55 45 64 48 45 50 46 43 47 39 38 32 25 24 29 27 25 28 28 25 30 32 38 37 34 35 37
56 62 83 91 94 93 90 97 98 91 91 85 78 69 56 51 72 62 71 62 40 68 69 59 60 58 56 52 45 46 45 33 30 27 24 21 23 25 25 30 31 33 36 39 38 41 47
62 71 83 93 96 92 98 98 97 97 97 97 88 79 71 76 78 77 59 54 69 80 45 61 63 59 42 38 42 44 44 31 34 36 36 30 27 27 29 30 35 38 45 59 57 54 50
70 78 87 96 97 97 96 95 91 96 97 96 83 79 76 70 73 62 54 65 79 44 57 53 49 45 32 29 28 31 27 28 35 35 33 32 29 22 29 35 33 39 52 66 70 61 40
72 79 87 93 96 96 97 96 96 96 95 83 73 67 61 62 68 68 57 72 58 58 51 51 48 47 30 27 26 26 26 26 30 25 39 41 39 29 32 35 37 42 55 57 68 55 66
74 80 84 90 91 94 95 93 97 91 92 85 67 70 72 61 48 60 77 70 54 56 53 48 45 42 41 35 31 25 25 26 27 27 28 34 36 37 30 36 47 52 58 73 78 77 75
75 78 82 86 89 93 94 95 87 77 74 73 72 68 52 52 63 60 59 58 49 52 56 52 49 43 34 30 32 31 30 33 32 32 29 30 38 35 28 43 54 60 65 76 72 74 77
77 81 82 86 94 95 94 86 69 65 60 65 77 83 65 52 52 58 60 56 52 56 53 48 40 35 27 24 23 25 30 30 30 28 31 33 36 42 30 28 33 60 80 87 97 87 84
80 83 86 92 96 92 89 83 72 67 79 79 72 54 42 69 77 61 53 57 59 48 41 36 30 32 29 30 30 29 28 31 32 29 29 29 36 41 22 19 29 49 75 84 87 93 96
82 84 89 92 91 87 80 68 61 57 63 73 76 71 66 64 57 65 64 50 44 38 32 33 37 34 31 31 29 32 30 30 32 36 35 34 39 43 55 42 38 42 53 72 86 90 89
85 85 86 90 86 74 65 64 60 61 78 78 75 57 49 61 70 59 43 36 36 35 31 34 33 29 31 36 32 32 32 32 31 38 40 42 45 48 48 47 47 47 46 60 72 72 96
86 84 85 85 81 77 69 62 56 74 74 58 53 59 69 62 54 45 42 45 37 32 34 35 34 34 34 34 34 36 36 35 37 33 40 45 47 47 32 32 42 56 48 53 60 59 72
89 86 83 84 70 66 59 64 61 51 49 56 70 60 54 49 46 42 33 33 37 34 34 32 31 30 30 33 32 31 30 29 31 32 34 43 55 58 48 51 67 73 57 45 54 69 82
96 92 82 77 70 73 62 47 45 53 71 60 50 52 51 46 40 41 36 37 34 31 33 33 31 31 31 30 25 19 20 23 26 30 34 42 52 64 72 69 88 71 89 78 90 89 96
96 93 88 76 59 46 42 48 62 61 43 43 50 49 47 51 41 39 38 33 28 29 32 32 36 35 34 29 34 42 44 42 42 49 61 66 83 97 83 86 74 73 96 98 97 98 98
98 93 88 76 58 42 49 66 55 44 43 40 37 41 39 41 42 37 33 28 35 39 40 41 40 39 36 41 50 67 64 58 63 67 80 71 80 90 85 96 97 94 93 96 98 97 96
98 95 85 74 57 53 65 50 42 47 37 37 36 39 47 40 38 34 33 33 34 35 38 36 35 35 42 47 68 72 74 69 92 90 89 80 84 82 86 94 90 97 94 98 97 98 97
92 95 88 78 65 62 66 44 46 46 36 37 40 42 45 39 39 36 34 31 27 30 36 32 38 42 45 57 63 69 78 85 96 94 97 96 96 96 96 97 97 94 91 95 98 97 93
87 93 92 81 71 66 59 48 47 37 41 45 35 39 43 35 32 33 35 32 29 30 30 30 36 45 51 53 52 63 82 92 92 97 96 96 98 98 97 97 98 98 99 97 98 94 89

GFSGBSN_prec_cthk_093.txt.gz
RH
21 23 26 28 35 38 45 51 54 63 67 75 80 82 86 90 88 87 85 84 84 77 69 62 58 56 51 49 55 43 40 38 36 34 32 30 30 28 27 27 27 29 28 27 27 27 27
14 14 15 17 18 23 29 36 45 55 64 68 75 81 83 88 86 88 85 89 84 77 72 68 60 57 54 55 52 45 42 39 39 38 36 32 33 33 33 33 31 28 28 27 28 27 25
16 16 14 13 13 15 18 25 35 47 59 65 74 76 80 86 84 87 88 89 83 76 71 68 63 58 59 63 52 43 46 44 42 39 37 37 37 36 34 33 32 32 32 32 31 30 29
15 15 13 13 13 13 15 20 28 34 45 59 68 76 75 81 84 90 87 88 80 78 72 68 66 61 60 64 52 47 41 43 40 41 36 37 37 35 34 35 36 36 36 36 32 33 30
14 13 11 12 12 13 15 18 25 32 43 47 64 68 72 84 79 91 94 87 83 79 75 68 67 66 63 56 53 46 41 38 37 38 36 33 39 37 36 36 39 39 40 37 33 27 27
14 13 11 10 12 13 16 19 28 39 43 43 55 68 74 77 86 88 93 91 80 79 73 75 72 71 59 56 57 52 45 42 41 38 38 38 34 35 38 38 44 39 37 33 31 30 29
16 15 13 11 12 14 17 22 28 38 43 47 55 70 67 86 84 83 93 95 89 89 79 80 66 65 60 52 52 50 49 44 42 44 42 39 37 37 33 33 31 31 31 31 29 29 28
17 16 17 16 15 17 24 31 35 40 49 54 66 61 62 70 79 85 91 94 91 89 82 74 74 68 53 52 51 46 46 44 39 40 40 41 40 34 36 36 35 34 33 31 29 30 30
19 17 19 24 25 27 31 36 40 46 54 67 65 66 65 74 74 72 80 93 82 81 72 60 55 56 53 51 51 37 35 35 35 38 39 41 31 32 36 39 38 36 36 32 33 33 31
25 19 21 27 32 38 44 44 52 60 67 76 79 85 91 82 77 73 77 67 75 82 67 42 49 41 46 44 44 35 43 41 39 35 37 41 29 31 37 37 37 39 33 33 35 33 34
31 30 28 31 39 46 53 64 68 77 82 77 90 84 91 80 75 73 69 76 75 63 63 44 43 42 45 40 44 41 41 38 35 35 39 36 33 33 36 33 34 34 31 32 33 35 35
38 40 38 42 48 58 76 82 98 95 95 90 99 98 87 86 80 73 81 76 66 70 66 58 48 45 44 44 44 47 44 40 40 36 35 30 31 32 27 30 35 33 34 37 38 40 45
44 48 50 53 60 67 77 97 89 98 98 98 98 96 90 86 79 78 78 63 71 81 47 63 63 57 56 58 60 57 55 51 48 48 45 37 34 29 30 29 33 33 39 50 50 55 50
46 52 59 63 67 74 82 95 95 95 97 97 97 95 80 79 88 91 77 85 88 49 56 58 71 66 63 54 55 59 67 56 44 48 43 38 34 36 38 37 38 39 42 54 59 61 43
49 54 60 64 71 76 85 91 93 95 97 98 94 92 84 81 89 93 85 90 66 61 57 60 64 64 51 44 43 50 52 47 39 35 44 42 43 28 33 31 38 43 46 43 56 55 64
55 58 62 65 70 76 86 89 90 96 97 95 79 78 82 87 83 85 84 75 61 64 60 63 63 57 49 39 41 45 45 43 40 38 34 32 31 33 29 32 35 45 56 68 78 78 80
58 60 62 66 73 77 82 85 89 91 94 88 82 75 76 71 68 84 82 80 61 65 66 63 63 58 52 42 43 42 43 41 35 31 30 31 34 33 24 30 31 36 57 74 74 79 87
61 61 63 66 73 76 80 88 84 79 82 81 77 83 78 68 76 82 79 70 64 66 69 67 61 57 57 54 46 43 44 43 40 34 36 33 39 44 30 18 18 22 50 66 85 96 89
66 67 69 74 78 81 86 84 80 77 76 79 79 65 62 66 82 74 71 68 68 66 65 64 67 62 56 48 43 30 31 39 43 36 32 26 33 35 20 30 30 36 34 42 57 77 81
71 71 72 78 83 83 86 82 71 64 73 82 75 71 80 80 78 59 65 68 69 67 67 61 58 49 39 36 34 40 44 38 30 29 29 28 33 31 38 27 33 37 35 43 51 71 76
71 72 77 85 88 82 81 75 65 77 87 86 76 67 58 70 74 69 64 69 70 65 51 40 38 38 41 45 38 38 34 32 31 32 32 34 40 39 35 34 34 31 29 29 40 42 58
74 75 85 90 87 80 72 69 68 67 73 82 78 73 75 65 60 66 69 62 49 37 36 39 40 35 34 34 30 32 33 31 30 29 32 39 46 42 36 33 31 35 34 35 37 39 40
76 76 89 87 80 72 65 61 60 74 82 79 73 63 58 68 70 63 52 41 46 44 41 37 35 33 32 31 28 27 26 24 25 28 31 34 41 47 41 44 53 54 53 75 69 46 44
75 78 87 87 82 73 67 63 59 78 74 56 62 72 70 67 53 52 48 39 36 36 36 31 29 29 28 26 23 21 23 23 25 30 34 42 45 50 57 57 74 53 87 96 87 68 72
79 85 87 81 62 61 62 71 68 50 54 63 72 59 51 55 42 38 39 40 38 33 31 33 32 31 31 27 31 40 42 38 46 55 56 60 73 84 85 88 58 65 90 97 98 97 83
82 93 87 80 69 75 65 55 55 62 71 68 54 54 47 52 53 46 37 34 31 32 38 37 37 33 32 36 48 57 59 56 62 65 74 76 73 86 96 90 83 82 89 92 98 97 95
84 94 92 76 62 51 51 65 69 61 46 47 52 53 47 44 46 42 37 33 33 36 38 37 34 34 33 46 59 63 67 68 84 86 84 81 78 81 89 92 81 91 93 98 98 96 98
89 97 88 76 59 50 58 68 59 46 43 38 41 40 39 40 42 39 29 27 31 33 34 31 36 35 39 47 52 63 74 90 89 87 90 97 97 95 94 97 96 94 95 96 98 98 98
91 97 94 77 63 61 69 56 46 47 33 36 38 42 49 44 38 35 32 26 28 27 25 29 31 38 39 42 44 60 76 90 85 90 90 96 97 98 97 97 98 97 97 97 97 97 98

GFSGBSN_prec_cthk_096.txt.gz
RH
15 15 15 16 16 17 19 21 25 29 34 43 51 55 62 62 64 66 69 74 78 76 76 72 69 66 61 59 62 59 54 52 49 44 40 38 35 34 33 31 30 32 30 29 28 29 29
14 15 15 15 14 13 13 14 15 15 21 32 42 51 57 64 66 69 71 72 74 72 73 68 65 63 61 59 69 62 56 54 49 46 43 41 38 35 34 36 34 33 32 31 30 30 29
13 12 13 14 14 14 14 13 14 13 13 17 25 39 50 56 69 68 75 76 73 74 73 64 59 58 54 60 69 64 62 60 54 52 46 46 41 45 41 37 35 36 36 34 32 31 32
13 13 13 14 13 12 11 12 12 14 15 17 26 30 39 54 68 68 74 87 78 80 73 63 55 65 55 65 64 65 60 60 56 51 48 43 44 41 39 38 37 38 39 40 36 35 33
15 13 14 15 14 13 12 11 12 14 17 20 24 33 33 43 53 60 77 87 79 83 77 67 68 62 56 58 58 58 53 59 52 46 48 46 42 42 40 39 40 40 43 40 38 34 31
18 15 14 15 16 15 13 12 12 15 19 22 29 34 36 41 46 57 68 78 75 92 93 77 77 76 61 59 58 55 49 49 46 47 45 45 42 41 40 42 44 45 42 40 38 32 29
22 15 14 15 16 15 13 13 14 16 20 26 29 35 40 45 49 59 64 68 94 95 94 72 89 75 63 63 60 60 54 51 51 52 51 46 43 41 39 38 37 38 40 40 35 32 33
22 19 16 14 15 15 16 18 18 23 26 29 33 39 47 46 53 62 63 69 84 92 90 93 92 83 82 72 64 56 61 59 56 54 51 48 45 39 36 34 35 35 37 38 36 34 37
22 21 18 15 15 18 22 22 24 28 34 37 42 47 51 55 57 74 74 69 72 69 88 71 71 75 81 85 75 64 60 61 58 53 50 50 41 38 39 40 42 43 45 42 41 38 36
23 21 20 16 15 21 26 29 32 36 42 48 53 57 54 63 72 70 74 79 75 71 75 40 44 56 62 76 75 62 60 56 52 48 45 45 39 37 42 41 44 47 42 41 39 41 41
25 29 27 23 18 28 30 38 42 48 52 47 54 61 80 78 79 85 90 87 88 77 86 46 40 31 46 51 49 57 58 49 47 45 46 45 39 41 40 38 42 44 39 40 39 39 42
31 32 32 31 32 31 36 40 50 54 56 69 78 86 91 99 83 96 96 92 86 81 77 57 43 42 49 51 50 51 47 48 46 45 46 41 44 44 38 37 41 41 40 38 41 42 45
34 36 39 41 39 41 46 49 56 62 73 93 98 98 95 94 98 97 96 92 87 82 59 64 58 51 51 57 58 51 55 56 53 53 48 40 41 40 42 40 39 38 43 49 50 56 46
38 39 44 44 47 49 51 58 64 76 92 97 98 98 95 95 98 97 96 95 83 57 57 51 58 57 55 53 58 59 60 56 50 55 55 51 46 46 45 41 41 46 51 57 56 56 46
44 45 47 49 55 55 57 62 67 75 87 90 93 89 83 93 98 96 94 95 77 70 62 61 79 77 62 58 59 65 67 66 56 47 51 54 51 45 43 46 52 55 54 52 52 49 53
51 52 50 50 52 55 60 63 70 78 89 93 92 94 79 89 96 95 98 87 76 70 67 72 94 84 66 62 62 66 69 68 60 53 49 51 47 50 46 45 44 46 50 61 64 68 61
51 56 56 53 55 58 62 63 69 76 86 88 79 89 92 92 93 98 96 89 78 70 73 78 80 73 62 62 56 67 70 65 58 54 53 51 44 42 37 41 38 35 40 55 64 73 78
53 59 60 58 57 60 63 68 71 77 85 83 87 88 87 89 93 91 89 78 76 72 77 74 82 75 66 62 57 58 61 58 56 48 43 41 50 48 34 30 34 30 48 46 57 72 79
60 63 59 60 62 64 68 72 69 78 85 89 91 90 86 79 91 86 76 77 76 76 77 85 80 72 69 63 62 60 63 55 50 46 43 38 43 34 32 34 36 37 35 38 42 48 56
67 66 65 66 67 69 76 75 72 78 83 93 82 89 86 88 87 81 75 81 79 78 79 73 76 77 75 71 67 61 56 46 44 46 44 38 40 31 25 23 32 33 33 31 36 52 44
70 70 70 69 72 75 79 80 70 72 83 94 83 71 67 70 86 74 73 72 75 75 75 76 71 67 64 57 49 48 47 46 44 40 36 32 35 37 35 35 35 35 26 20 28 29 46
71 72 73 74 77 80 83 83 67 70 85 95 84 78 76 76 76 69 70 74 75 76 74 68 59 47 44 45 45 48 44 42 36 31 30 33 39 37 37 31 31 29 27 33 38 44 48
70 74 75 79 82 81 84 78 66 86 95 92 84 72 70 70 75 75 72 70 70 59 49 45 45 44 44 42 39 32 25 24 24 27 28 29 35 37 35 36 32 27 33 52 57 64 78
72 73 80 85 83 78 76 77 78 81 84 87 84 82 77 79 66 68 69 67 55 47 46 46 40 37 36 31 26 23 24 25 24 27 29 38 40 43 45 38 43 46 61 63 77 84 88
71 73 85 82 82 74 66 64 65 76 88 83 71 70 65 78 74 67 60 56 46 43 45 40 36 33 30 25 31 37 40 38 47 48 49 49 54 62 68 75 60 65 67 80 88 85 97
69 72 89 86 84 71 74 77 70 82 80 63 72 78 71 68 67 57 46 46 45 43 41 35 34 30 27 39 45 50 55 51 55 58 61 68 67 67 76 87 86 75 80 83 90 93 97
72 76 89 82 65 66 71 81 73 59 55 67 75 61 56 53 51 50 49 44 38 35 35 36 33 33 30 47 52 58 62 56 69 77 79 76 75 76 82 84 82 90 90 88 93 97 97
79 84 93 85 76 77 78 67 59 66 70 68 62 55 53 51 54 45 35 37 33 29 31 31 34 33 37 44 48 58 65 75 79 79 84 84 86 88 87 96 96 93 92 93 97 97 97
86 94 92 85 71 59 62 71 73 62 47 51 51 48 46 43 45 42 32 30 27 25 24 30 30 35 33 35 42 57 74 76 79 82 82 89 89 91 93 96 96 97 97 97 97 97 97

GFSGBSN_prec_cthk_099.txt.gz
RH
14 14 14 14 14 13 13 13 13 13 13 15 18 25 37 43 49 55 55 57 58 61 59 57 55 57 53 48 54 63 60 59 59 55 50 46 45 42 39 38 37 37 33 32 30 30 31
15 15 15 14 14 13 13 13 13 14 14 14 13 14 19 33 43 52 55 56 62 60 60 56 55 57 51 44 58 56 57 59 58 55 53 51 48 44 42 41 40 39 38 37 36 34 33
16 16 15 15 13 12 12 12 12 11 12 13 14 16 20 23 33 41 52 53 61 58 65 62 58 52 52 46 58 54 53 55 58 60 53 50 49 50 47 46 43 42 40 39 37 34 33
18 18 15 14 13 13 12 12 12 11 11 12 13 16 25 26 32 36 47 51 63 58 69 74 60 60 53 51 55 57 59 58 59 58 57 54 53 51 50 47 45 44 42 40 38 37 36
18 18 17 16 14 13 13 12 12 12 11 12 14 18 24 28 31 35 39 47 54 64 69 68 70 66 60 52 54 56 53 57 64 58 56 53 51 53 48 46 49 47 42 43 39 36 34
17 17 18 15 14 13 13 13 12 12 12 13 15 24 27 29 31 41 38 49 53 62 64 60 64 69 66 64 54 59 59 56 58 63 57 52 53 51 48 50 49 46 44 42 38 35 34
17 17 19 15 13 13 13 12 12 12 16 17 16 24 27 29 35 40 41 55 54 57 55 51 59 56 65 65 70 69 65 65 57 56 54 56 53 47 52 51 45 45 44 42 38 34 30
21 23 20 14 15 14 14 14 14 18 21 22 22 25 28 34 37 41 49 52 53 59 59 48 56 45 54 72 76 75 75 75 59 52 55 57 50 50 51 47 44 43 40 36 34 35 35
26 25 22 20 15 14 15 16 21 22 22 23 24 30 34 37 40 51 56 55 56 64 75 45 47 45 45 78 74 75 80 80 71 63 58 56 54 51 48 48 45 43 42 42 41 40 39
22 22 22 19 17 15 16 20 24 26 28 31 33 36 37 42 48 55 58 66 59 75 96 46 47 43 42 51 59 67 70 80 78 72 68 63 55 55 52 52 49 49 44 45 47 46 41
20 22 21 20 17 17 19 20 30 36 38 38 40 43 46 49 52 61 55 67 86 86 92 59 49 44 44 49 52 50 73 77 81 78 81 72 63 55 55 49 45 44 46 49 48 46 44
26 26 29 29 26 24 24 29 33 38 43 46 50 52 52 57 64 74 89 98 91 94 95 66 55 55 56 52 56 58 71 70 72 73 67 56 53 53 53 46 40 45 53 52 51 49 48
30 29 31 31 33 35 36 39 40 45 47 51 54 57 62 74 87 99 97 98 95 93 71 71 71 74 62 59 58 63 68 64 65 64 57 55 53 56 54 51 48 49 48 48 53 58 43
35 37 33 37 41 42 46 48 51 52 54 61 66 76 98 97 98 98 98 97 95 73 67 62 57 69 60 51 53 59 65 68 65 63 57 54 57 56 56 54 50 49 49 47 50 49 45
42 41 38 42 45 47 51 52 55 57 63 67 72 83 89 94 97 97 93 92 87 84 78 71 78 81 63 57 58 58 60 62 62 62 66 65 63 59 51 49 49 53 52 51 52 56 55
60 41 43 46 48 50 53 56 58 59 62 66 69 73 85 90 95 95 93 90 82 76 75 74 87 97 73 61 68 66 68 66 65 68 66 60 60 61 54 53 50 59 62 70 70 62 53
80 61 47 50 51 51 54 59 62 61 64 70 75 76 85 92 93 94 90 87 84 80 77 79 86 93 78 67 73 79 77 78 75 71 61 58 55 58 54 55 54 46 50 66 64 68 66
86 78 55 52 55 56 57 60 62 63 66 65 75 79 84 90 95 97 95 83 82 79 81 80 90 87 76 72 71 85 80 79 75 71 67 66 64 61 56 53 49 48 56 53 46 58 67
89 87 73 57 59 60 61 59 61 66 68 70 80 82 84 91 94 92 87 82 82 80 82 91 87 84 78 74 70 73 74 74 66 65 62 55 51 46 50 54 46 45 45 38 39 46 48
97 94 86 64 65 64 64 66 60 69 68 79 79 85 85 90 94 92 85 82 82 78 84 83 89 88 80 73 68 66 63 65 67 64 59 49 47 39 36 43 47 44 42 35 33 48 35
96 97 90 74 74 73 72 72 64 74 77 84 83 79 76 85 90 90 84 81 81 82 83 76 82 79 82 77 75 73 69 61 53 51 50 50 50 40 30 32 30 30 26 26 25 22 28
98 98 93 83 78 77 75 76 70 74 77 89 88 84 80 79 77 87 84 79 76 77 79 83 78 69 65 66 58 56 48 47 48 48 43 41 45 37 34 30 32 29 24 22 24 27 32
97 93 90 78 80 80 80 80 69 69 85 90 92 84 76 75 74 82 72 77 77 79 78 69 62 57 53 51 49 47 47 46 42 34 30 29 33 31 27 31 28 26 28 29 41 53 61
95 96 87 79 85 85 83 83 72 75 82 94 89 86 82 78 76 79 75 76 74 68 58 53 52 52 49 45 42 39 36 30 24 24 25 30 32 35 34 40 34 52 59 65 66 70 78
97 93 80 81 84 83 81 84 73 80 97 94 90 88 81 80 78 78 77 77 74 63 57 57 49 43 42 37 38 36 39 39 45 47 43 40 45 53 55 54 45 63 70 75 74 72 80
88 83 81 86 83 72 82 81 81 87 90 91 87 87 78 77 80 77 76 72 64 53 55 49 39 35 29 33 39 42 45 46 52 56 54 57 58 59 64 67 63 70 71 78 83 79 83
85 78 83 86 81 71 75 79 75 76 91 90 74 83 81 80 79 71 62 54 51 48 42 40 35 31 34 43 47 48 51 51 59 64 67 65 67 67 73 76 75 85 84 86 86 87 88
78 74 79 85 86 79 85 81 78 85 78 73 81 80 71 66 65 56 56 53 42 37 34 32 31 31 39 42 45 56 56 62 64 67 70 72 74 76 75 82 86 87 88 87 96 96 96
79 78 79 75 72 76 82 85 80 65 61 72 81 69 57 58 62 62 46 38 39 27 25 30 29 33 32 36 44 53 59 65 68 70 75 82 83 84 85 88 90 93 92 95 96 97 97

GFSGBSN_prec_cthk_102.txt.gz
RH
14 13 13 13 13 13 13 14 13 13 13 12 12 11 11 13 16 27 37 43 48 50 51 48 50 51 50 45 43 46 48 47 45 45 50 49 47 48 44 41 41 42 39 37 37 34 34
14 14 13 13 13 13 14 15 14 14 13 13 12 12 11 13 15 19 25 35 40 44 52 47 48 52 48 40 41 45 47 46 47 46 47 46 47 45 40 42 43 42 44 42 42 40 38
16 16 16 18 18 18 18 15 14 14 14 14 12 12 12 13 14 24 24 32 31 37 41 47 46 51 46 38 48 47 50 51 54 53 49 47 43 40 41 44 44 47 46 44 44 42 38
18 19 19 19 18 19 19 18 16 16 16 14 13 13 13 14 18 25 27 31 33 33 39 45 46 47 48 40 43 53 51 47 55 58 55 51 49 46 44 43 45 46 45 46 44 43 40
20 19 19 19 18 18 17 17 17 16 15 14 14 12 13 14 23 25 32 33 34 35 41 45 45 45 44 36 39 44 55 56 63 59 59 60 55 50 51 48 45 43 45 44 44 45 43
23 22 21 20 19 17 16 16 15 14 13 13 13 13 15 16 24 27 33 31 43 42 42 42 41 43 32 35 37 38 37 43 50 57 64 64 60 57 52 50 44 50 49 49 46 40 40
26 24 22 21 20 18 17 16 15 13 13 13 14 16 21 22 25 31 32 38 47 45 40 36 34 30 34 35 35 34 41 51 61 59 67 69 72 50 60 60 59 59 53 49 46 44 41
29 26 26 25 19 18 18 19 18 18 18 17 20 22 22 23 32 32 37 44 47 41 41 37 34 32 35 42 39 42 49 52 50 55 69 75 67 65 65 63 62 61 55 49 49 45 39
28 28 27 23 18 17 18 18 19 20 22 22 22 21 22 29 33 41 37 46 44 50 65 33 35 32 44 54 50 48 47 47 47 70 63 79 71 67 65 65 65 63 57 51 46 47 44
27 26 26 25 23 20 17 18 17 19 22 22 22 24 30 37 43 40 44 47 49 63 85 41 35 39 48 55 54 53 55 56 58 63 80 80 71 66 70 65 62 58 53 48 50 50 45
32 28 26 25 22 19 17 15 16 21 25 27 30 31 37 40 41 41 47 51 52 72 86 46 49 51 50 60 56 55 65 65 64 65 71 73 76 79 83 66 62 56 58 55 53 57 52
32 28 31 30 29 24 21 18 16 18 27 33 37 37 38 44 44 49 56 54 61 84 90 72 57 53 57 61 59 59 68 74 80 95 93 88 88 86 80 79 73 64 58 57 59 54 55
35 35 33 30 31 28 26 24 24 24 30 39 42 49 46 52 62 57 61 69 85 96 73 70 63 63 57 59 61 64 75 77 83 91 90 87 83 70 63 64 68 75 65 71 70 66 52
43 44 44 38 35 41 38 35 32 34 38 43 45 50 54 58 67 78 88 95 96 83 74 58 55 58 65 62 60 60 78 81 79 74 72 76 76 67 64 62 64 59 61 69 68 54 47
49 52 54 54 40 42 41 41 42 42 45 51 55 59 67 75 75 85 95 95 90 82 78 70 65 72 70 65 57 62 68 76 68 67 70 68 71 64 62 63 63 65 64 56 59 56 56
58 63 66 63 48 46 43 43 45 48 51 57 63 65 69 76 79 87 88 83 83 76 71 68 74 88 80 64 64 66 67 67 67 71 71 68 73 67 60 63 63 66 63 68 65 64 57
63 69 74 78 63 49 51 50 51 53 55 55 59 63 70 74 79 82 83 77 79 76 73 78 80 85 88 71 68 82 70 65 66 72 74 67 67 68 64 63 60 59 65 68 68 70 64
65 67 83 82 76 59 58 56 56 59 63 64 66 66 72 76 79 81 79 81 80 81 81 82 85 83 87 80 86 83 80 72 73 73 75 69 62 59 61 61 56 53 57 56 59 59 59
64 69 91 98 93 76 62 61 61 63 65 67 70 71 75 78 77 77 78 79 80 81 82 87 84 87 79 84 76 87 92 89 85 85 79 67 63 69 64 61 57 56 56 53 52 48 50
70 77 98 98 97 83 64 67 64 66 70 71 70 72 75 78 82 83 83 82 83 81 82 83 85 88 82 82 75 77 81 81 75 72 71 63 58 53 50 54 55 58 56 50 48 51 39
80 85 95 98 90 89 72 68 69 72 75 76 72 70 70 80 84 86 81 79 82 81 81 81 85 89 95 82 75 74 71 75 73 73 65 59 54 48 49 51 46 41 36 32 28 21 27
71 88 92 99 90 95 76 76 75 78 77 80 76 71 72 72 84 86 86 81 80 83 80 81 86 79 85 88 80 77 73 73 67 61 59 56 58 47 39 36 32 26 22 22 21 19 22
70 84 88 99 98 95 80 80 78 83 84 86 83 78 78 82 84 90 84 80 80 78 80 86 78 73 73 73 72 68 66 59 53 50 49 42 40 30 23 24 23 21 24 25 25 28 42
83 85 95 99 98 92 80 85 83 87 88 88 91 90 85 82 79 82 78 81 79 78 81 72 62 64 64 58 56 52 48 48 47 41 31 26 24 25 27 28 42 52 45 48 50 53 58
98 95 98 97 93 86 82 88 86 85 90 97 94 92 86 84 75 81 79 77 79 75 70 61 60 58 58 53 54 54 54 47 45 36 27 28 35 43 51 48 44 58 61 65 69 67 68
98 97 96 97 95 78 85 93 84 84 89 98 95 90 88 86 81 82 81 78 76 71 67 65 56 50 47 48 50 48 41 39 48 50 50 46 47 55 55 59 60 74 69 72 80 79 78
98 98 98 91 79 75 85 89 81 83 90 98 94 91 85 85 84 81 76 77 72 62 59 58 51 42 36 40 44 45 45 42 51 55 59 61 61 59 61 67 75 76 77 83 86 89 91
98 92 85 82 74 72 92 89 89 95 95 96 89 88 84 85 84 79 73 61 54 56 46 42 38 35 38 39 39 44 49 50 55 64 66 63 67 68 64 73 81 78 79 87 94 95 95
90 83 80 78 69 78 91 91 90 89 91 91 87 88 83 80 79 70 59 58 45 39 34 32 34 32 37 38 40 46 52 56 57 66 67 74 74 77 78 80 83 84 88 92 95 96 97

GFSGBSN_prec_cthk_108.txt.gz
RH
51 47 45 37 28 22 19 17 13 12 11 12 11 11 11 12 13 14 14 14 13 17 21 20 23 28 32 32 26 19 23 23 25 29 30 29 28 30 29 32 33 34 32 29 27 28 28
33 33 29 22 17 14 13 12 13 14 12 10 10 11 11 12 14 15 17 18 15 18 24 24 23 27 28 28 18 26 25 24 21 22 23 27 29 32 31 32 34 33 31 29 28 24 25
28 25 18 15 17 18 12 18 13 11 11 11 12 12 12 13 15 17 18 17 21 24 26 33 30 32 30 21 14 14 19 25 20 22 24 26 28 30 31 32 32 30 30 28 29 33 30
33 35 26 21 17 18 15 13 12 12 12 13 13 14 15 15 18 18 19 20 28 30 29 37 35 37 30 17 21 20 20 21 26 22 22 26 29 30 30 31 29 32 34 34 27 32 29
26 20 16 15 18 16 13 13 14 14 15 15 16 17 17 18 17 20 22 23 29 31 36 36 38 37 28 27 22 23 23 22 27 25 25 30 32 29 32 34 33 35 38 41 30 36 35
24 27 26 20 19 17 17 17 18 19 18 18 20 21 20 19 19 22 24 28 33 36 37 42 38 39 27 26 27 31 26 24 25 28 30 29 28 29 31 36 39 32 38 36 38 38 48
30 29 25 26 23 22 22 24 25 24 24 24 23 24 24 23 24 25 27 36 44 42 40 30 27 25 22 25 27 31 31 33 29 30 32 32 37 35 30 29 36 40 44 49 38 38 59
36 34 30 27 25 26 26 26 25 24 22 22 22 22 25 28 29 31 34 37 34 40 38 33 31 28 24 18 26 23 27 28 32 33 36 35 28 28 32 35 42 48 54 51 55 44 53
41 39 36 33 29 25 24 23 20 20 20 19 20 21 26 33 32 40 36 39 41 39 41 29 28 24 20 29 22 22 28 30 31 36 36 39 35 40 42 45 46 42 51 48 57 65 62
42 41 37 33 29 27 27 25 22 21 20 21 21 23 30 35 41 39 43 41 44 45 49 24 23 23 30 32 29 25 31 35 39 35 46 45 44 48 44 44 53 55 56 60 57 75 83
34 36 37 34 33 31 29 28 25 21 20 19 20 24 31 33 37 37 35 41 49 58 52 15 25 31 32 30 25 31 34 39 40 47 58 42 54 55 50 46 58 65 70 70 79 81 82
37 36 35 33 31 30 31 30 25 20 18 18 18 26 34 38 37 38 40 50 63 72 54 21 26 29 32 32 30 33 34 45 52 57 68 58 68 64 61 59 63 74 81 85 90 90 92
44 45 41 38 36 35 36 33 28 24 20 18 21 32 36 35 36 40 46 63 79 75 32 27 29 31 31 32 36 41 50 57 65 73 71 67 60 62 62 62 64 72 89 94 95 95 70
24 36 38 39 36 36 37 37 33 28 24 24 26 34 36 40 40 50 58 81 90 33 31 36 32 33 33 35 40 49 53 60 66 66 66 72 67 63 66 64 68 72 84 83 93 90 74
35 40 46 43 40 36 39 41 40 34 27 27 30 41 38 44 52 58 75 88 73 52 47 47 47 38 36 46 56 65 70 61 58 69 79 73 70 66 64 63 68 79 84 72 82 84 96
39 45 46 46 43 41 43 48 49 49 41 38 42 42 51 57 81 69 85 78 65 58 65 58 57 57 54 63 69 77 67 64 61 68 70 85 74 73 72 68 63 63 73 98 95 93 91
43 43 44 49 51 50 49 53 59 52 56 55 51 58 60 59 68 63 90 71 66 61 69 76 72 68 66 66 66 82 89 68 65 71 76 85 70 73 77 68 62 68 66 91 98 74 86
43 42 42 47 51 52 55 58 71 75 74 65 68 76 54 60 76 85 73 72 67 82 69 55 60 62 62 65 68 65 80 83 75 80 81 78 74 75 71 64 60 60 69 86 98 95 95
38 36 36 40 52 49 56 63 85 90 84 71 78 74 77 69 75 64 58 66 71 65 68 58 58 60 65 68 74 69 82 83 77 71 73 74 75 74 80 72 56 55 61 65 69 68 66
43 35 35 34 35 46 58 64 84 99 96 79 82 92 68 78 70 66 67 70 78 59 59 57 57 64 65 71 72 77 85 84 78 77 73 75 71 72 80 79 63 58 58 60 60 67 59
53 46 40 37 33 38 55 73 95 98 89 83 85 97 70 64 66 69 72 60 69 64 56 64 68 69 70 75 74 80 84 85 81 78 75 74 76 70 69 56 56 61 53 50 47 51 59
45 42 39 35 40 40 59 90 95 99 99 90 89 98 91 69 72 80 81 72 66 64 63 63 69 74 76 77 77 80 86 82 78 76 78 79 83 77 71 60 55 53 47 48 48 47 45
37 33 35 38 46 53 67 89 96 98 96 88 84 83 98 78 91 80 71 71 74 72 71 66 72 76 79 83 85 79 82 79 73 79 85 78 77 72 67 62 56 53 49 41 40 34 38
34 36 47 45 58 68 79 85 97 98 92 88 88 87 92 80 84 77 75 77 78 82 89 79 85 83 87 82 78 77 77 76 75 79 75 72 69 61 57 51 45 55 47 41 37 47 47
58 67 70 68 69 79 81 86 98 93 95 90 83 88 90 94 88 83 79 83 84 92 91 83 79 84 77 70 80 81 76 73 73 69 61 53 52 49 50 40 55 55 49 48 42 53 48
97 85 79 75 77 79 89 97 98 92 85 92 86 92 97 96 91 84 84 87 97 97 91 83 80 81 74 73 80 80 78 69 74 71 54 47 49 54 46 49 56 76 59 52 49 61 62
96 88 73 66 70 79 92 95 98 93 89 96 99 98 98 98 93 93 93 96 91 91 84 78 73 71 70 77 86 80 80 64 75 69 61 55 45 44 49 48 71 65 59 55 62 69 74
93 78 71 71 71 87 97 97 94 85 91 98 98 97 98 99 94 96 93 95 90 86 81 74 73 70 67 77 75 79 86 69 80 78 50 44 45 45 50 59 66 66 61 62 68 72 77
98 98 88 84 87 87 89 85 82 90 98 98 98 97 97 99 93 91 89 87 87 91 90 77 70 64 63 68 65 71 62 63 61 61 55 65 64 74 68 77 72 66 64 67 74 80 90

GFSGBSN_prec_cthk_114.txt.gz
RH
74 77 76 70 71 65 66 64 61 57 52 47 40 29 20 16 14 13 12 12 12 13 15 16 17 14 14 16 10 10 16 17 14 14 21 24 23 21 21 20 20 22 20 20 22 23 23
64 63 64 64 64 65 62 60 56 47 42 39 28 19 15 14 12 12 12 12 12 17 17 22 18 21 22 23 14 16 18 17 20 20 22 24 20 22 25 24 24 23 22 21 20 22 21
60 57 55 52 46 44 45 40 36 33 31 28 21 19 19 15 14 13 12 13 17 22 20 20 21 24 27 16 15 16 19 20 21 22 22 23 23 26 27 27 25 24 24 22 21 19 22
57 56 53 50 46 38 35 30 27 25 23 23 21 18 18 18 19 16 14 18 22 20 15 22 24 30 27 15 18 16 18 19 23 24 24 25 27 28 29 28 25 25 24 26 21 20 18
50 48 45 44 42 44 38 36 37 38 35 30 31 35 29 24 24 22 23 21 18 15 18 23 27 36 28 19 19 19 19 19 20 24 24 28 30 31 31 30 35 30 34 28 27 24 27
44 42 39 37 32 34 38 36 29 25 25 26 27 28 30 28 26 25 17 25 23 22 24 28 36 38 28 25 22 25 23 22 25 27 29 29 31 33 31 33 40 32 33 28 30 29 30
43 41 38 33 30 29 28 26 28 24 20 23 25 26 20 17 18 19 22 22 25 32 33 24 26 28 23 26 32 33 28 28 30 31 33 34 39 38 27 28 27 29 33 33 31 32 33
48 47 43 37 32 30 28 26 25 23 21 17 21 20 18 19 18 25 32 30 29 35 38 31 27 32 27 27 35 36 33 32 32 33 34 38 40 31 32 33 35 38 42 38 28 31 38
54 51 49 47 42 36 31 27 25 23 23 19 19 19 20 26 29 39 34 34 37 44 46 39 31 31 30 27 30 33 33 33 35 39 36 36 31 31 36 39 40 41 42 40 40 41 41
47 45 47 46 45 42 36 32 24 22 21 20 20 21 20 29 36 37 39 38 43 52 51 36 35 30 31 33 33 25 31 34 39 38 37 42 38 35 36 40 42 46 48 51 53 54 54
41 42 36 38 40 38 38 37 35 28 24 23 23 23 26 32 41 41 40 42 51 52 39 27 31 33 33 32 32 31 29 34 35 33 35 37 37 40 47 43 47 50 53 56 59 62 65
60 57 50 43 40 36 35 37 39 36 33 28 28 29 32 33 40 38 47 49 56 56 52 28 33 38 41 35 35 33 35 38 33 39 43 40 38 41 44 51 56 59 61 63 65 68 71
69 62 58 51 44 42 42 41 38 36 34 30 28 27 28 28 35 39 52 54 70 64 30 29 31 38 37 38 41 42 42 44 43 51 49 41 40 43 49 59 61 66 74 82 77 73 63
68 68 71 67 57 47 45 45 40 40 37 34 32 28 27 28 31 47 59 70 71 40 33 28 31 36 41 42 43 48 47 49 46 43 50 58 52 47 49 56 66 72 72 82 84 76 69
61 62 58 55 53 49 49 49 53 50 45 45 42 37 39 42 40 56 61 82 57 43 37 36 31 38 39 41 42 46 50 48 46 49 58 64 61 54 58 63 67 76 79 74 85 81 80
57 56 55 50 48 44 47 41 48 50 47 49 47 43 41 40 50 72 80 92 60 43 39 49 55 45 40 36 47 49 54 54 53 51 57 64 68 64 64 69 69 76 76 88 89 90 86
67 59 55 49 43 39 45 48 48 48 45 49 48 44 37 42 48 74 89 68 60 47 46 49 51 59 52 48 49 59 61 56 59 58 61 75 80 71 69 73 73 85 81 84 86 90 88
77 66 53 45 42 51 46 50 51 50 54 56 58 54 42 52 69 75 73 54 49 50 57 60 59 57 61 66 68 69 69 61 57 58 77 81 83 81 69 76 72 73 74 82 94 89 93
74 62 53 48 45 48 49 53 57 54 60 64 67 66 62 62 57 55 57 65 62 62 63 52 62 66 76 72 77 68 71 67 65 73 80 72 83 84 95 83 75 74 72 74 82 94 93
80 68 56 50 57 49 45 51 59 60 63 73 76 76 76 74 60 64 73 82 84 69 56 61 71 76 75 63 68 75 69 70 80 76 66 69 81 88 90 83 77 74 72 75 83 96 83
86 73 64 59 54 54 52 49 56 62 67 77 80 79 64 76 70 67 60 57 60 62 70 77 85 82 62 71 78 79 78 79 73 64 57 63 76 84 82 77 76 72 62 65 77 79 80
84 76 71 73 74 67 57 50 54 69 79 79 75 74 83 87 84 85 87 73 65 66 67 89 73 74 78 68 66 79 85 87 75 55 63 69 89 92 93 81 71 64 63 59 63 68 77
82 77 72 74 74 73 61 41 44 58 78 82 71 75 98 87 91 93 73 66 67 75 71 59 68 86 85 70 70 64 62 64 61 64 77 83 92 96 95 91 89 79 61 69 69 71 74
85 83 80 74 72 63 56 47 39 43 59 69 74 84 96 96 97 77 67 68 68 68 84 79 77 84 82 81 85 81 71 72 70 73 78 84 91 93 93 90 96 78 74 70 75 80 77
81 78 74 71 68 60 58 49 42 37 52 67 79 96 97 97 90 87 89 85 81 70 82 87 90 81 81 82 84 89 91 86 83 80 80 81 90 98 91 86 85 80 75 76 73 75 68
49 42 44 46 44 55 53 40 42 41 60 72 76 96 99 93 85 81 86 90 96 86 77 74 92 97 86 87 88 94 93 81 86 84 83 86 83 87 88 82 89 80 73 67 61 66 60
62 47 37 34 39 34 34 35 50 64 78 78 82 98 99 95 87 83 82 78 86 86 77 79 90 98 89 90 97 92 86 75 84 84 82 81 85 80 83 84 83 73 69 65 62 58 53
67 67 70 70 64 48 36 43 67 80 84 92 96 98 96 93 85 79 74 74 74 80 76 78 95 92 87 81 85 85 86 85 84 81 76 81 81 83 82 85 81 68 60 59 58 56 55
88 93 99 96 83 80 68 67 94 89 89 92 98 98 89 83 81 79 73 77 83 89 79 81 86 84 80 78 77 78 92 94 85 92 79 81 76 81 82 74 63 57 60 62 55 53 60

GFSGBSN_prec_cthk_117.txt.gz
RH
74 71 76 74 71 70 70 68 66 64 62 59 56 51 45 39 36 23 15 13 13 12 12 11 11 13 13 18 13 11 11 13 17 20 21 20 21 21 23 22 23 24 22 22 21 19 18
89 88 84 75 71 71 72 73 70 66 62 58 51 44 38 36 27 18 13 12 13 12 12 12 13 18 17 23 13 13 11 12 14 16 22 26 26 26 24 24 25 24 24 22 20 17 16
78 76 76 75 69 67 63 60 59 58 58 55 47 40 32 27 21 19 17 17 15 14 15 14 21 26 24 15 12 12 14 15 18 23 24 24 25 26 27 26 25 26 27 26 20 17 17
77 73 72 69 65 63 57 51 49 44 41 39 36 33 30 26 23 20 19 19 18 18 18 25 30 30 23 14 11 12 14 15 16 20 24 24 30 29 29 25 27 28 28 31 23 19 19
83 78 74 71 67 62 54 48 45 41 33 33 31 28 26 25 23 21 22 20 19 22 30 33 31 31 24 16 14 17 17 17 16 19 26 29 35 34 29 30 35 33 37 32 28 22 23
74 69 64 61 58 57 49 46 42 39 34 36 35 38 38 28 29 30 33 34 31 33 34 30 35 33 22 17 20 19 20 21 23 23 30 33 37 37 33 37 43 36 38 36 34 26 26
76 71 61 58 58 52 45 45 39 37 35 35 36 32 27 28 29 31 29 35 35 37 37 30 29 26 23 24 26 23 23 26 33 33 36 35 38 39 30 34 34 33 35 38 34 32 33
75 68 67 61 59 52 45 39 36 31 30 29 28 25 25 22 23 27 33 29 26 31 30 23 23 27 21 26 28 28 30 34 35 37 36 40 44 34 34 37 40 38 40 40 40 37 37
68 69 65 62 56 50 46 43 37 32 29 27 25 24 25 25 24 23 25 24 33 40 39 31 27 33 31 29 34 30 35 35 35 36 37 42 37 33 40 42 43 41 45 44 43 45 42
59 67 68 73 65 62 56 48 40 37 32 29 26 24 23 24 26 25 26 29 39 42 47 33 37 36 37 39 38 27 33 35 37 35 38 45 38 35 39 44 43 49 42 47 48 49 56
66 65 65 57 65 68 59 53 46 41 35 30 26 24 21 22 28 26 30 33 41 44 34 30 37 36 39 36 34 36 31 39 38 38 40 40 37 41 41 36 42 45 49 53 53 58 61
72 60 54 55 44 43 48 50 48 43 37 33 29 26 27 24 28 24 34 38 44 48 35 32 39 42 43 38 38 39 37 38 40 44 45 43 42 45 46 48 49 53 57 60 67 68 71
88 81 71 60 61 56 47 40 39 39 39 37 33 32 34 33 30 34 46 55 61 56 30 34 40 43 40 40 40 39 42 40 44 53 52 43 45 43 47 55 59 60 66 85 78 75 67
89 94 88 82 72 64 59 51 46 44 39 37 33 33 34 34 35 45 61 70 69 41 36 38 37 41 43 42 43 46 49 52 46 42 48 53 50 48 46 48 58 64 69 79 80 76 71
73 74 80 90 92 84 69 62 53 51 50 44 42 37 38 39 38 45 64 83 55 40 36 31 29 37 42 43 45 52 53 50 45 45 51 58 56 49 54 57 63 73 78 73 87 87 88
84 81 78 72 81 84 81 79 65 58 58 54 49 47 43 44 43 54 79 75 55 43 41 44 41 38 38 39 51 56 56 50 49 50 53 56 65 58 62 65 71 69 76 88 91 89 90
86 86 82 73 71 68 70 66 65 72 67 73 73 71 58 55 63 72 90 77 59 51 51 53 57 58 50 46 44 45 53 52 50 52 59 64 72 67 71 71 75 78 84 84 84 89 89
93 93 86 82 73 64 58 55 64 70 66 68 65 67 58 60 70 88 86 70 63 56 57 61 62 57 57 50 48 53 54 57 60 63 69 65 84 86 82 80 76 73 68 86 87 89 87
98 93 93 91 81 71 59 53 56 64 70 77 78 73 64 58 65 68 62 68 68 57 63 69 57 55 56 55 65 55 53 57 67 72 76 75 86 89 85 80 75 80 77 84 85 84 87
94 90 93 90 84 66 55 61 65 66 68 75 74 72 72 71 70 59 65 67 69 56 60 65 54 56 57 61 60 62 62 68 70 69 72 78 89 87 82 76 66 75 87 85 86 94 82
93 93 92 89 76 65 60 56 66 70 70 78 80 77 67 75 67 60 63 60 72 67 65 64 54 59 67 73 64 71 78 82 74 65 74 77 92 92 81 71 70 80 93 91 87 76 87
98 98 96 91 77 68 63 66 56 66 79 87 88 80 76 68 67 75 79 60 55 49 57 66 76 73 82 76 72 78 81 76 80 79 82 81 86 86 75 68 69 77 79 61 65 78 83
99 98 94 90 81 79 76 69 68 63 78 81 78 85 79 73 73 76 66 60 61 70 63 65 76 80 74 57 79 81 82 74 76 81 89 89 89 88 74 75 91 95 69 69 74 79 83
97 96 94 88 79 80 83 88 74 73 72 80 75 74 81 73 82 71 66 74 73 76 74 66 67 71 59 77 79 97 93 82 76 75 84 91 87 88 86 88 95 77 79 79 79 79 76
91 91 89 89 83 80 83 86 80 67 75 75 79 87 82 75 75 81 86 79 78 75 69 66 70 75 79 89 96 98 98 96 89 81 79 77 82 88 92 89 82 78 79 81 76 80 79
80 82 86 88 88 87 86 85 77 58 50 67 69 76 85 79 86 89 89 88 88 87 74 64 66 77 92 93 98 94 95 89 96 90 77 79 84 93 95 93 90 75 76 76 77 77 75
65 66 71 74 76 80 84 83 70 61 51 52 57 69 91 86 84 93 93 86 84 88 81 80 76 83 96 98 89 92 86 79 85 78 83 93 97 92 92 90 81 75 75 74 74 66 66
93 73 54 47 46 56 60 69 67 53 52 57 60 73 81 93 96 93 87 82 83 87 84 85 88 84 94 96 96 93 84 73 75 81 84 83 91 93 88 91 81 74 77 77 71 69 57
97 76 59 53 39 34 34 43 54 51 60 72 82 75 89 96 98 90 85 78 77 78 76 86 75 72 86 93 92 91 97 90 80 89 77 83 79 82 82 79 78 78 76 69 61 57 54

GFSGBSN_prec_cthk_120.txt.gz
RH
92 87 82 77 73 69 69 66 66 64 66 62 60 57 54 53 49 44 37 32 26 16 12 11 10 11 11 13 10 10 13 15 16 17 16 18 18 18 22 25 25 25 23 23 23 21 20
98 95 96 88 84 80 70 73 68 67 68 66 63 60 55 53 47 40 33 31 25 17 14 12 11 11 13 18 11 12 13 15 16 17 17 19 21 26 26 26 27 25 25 23 21 19 18
97 94 95 92 94 93 86 79 71 68 64 61 60 58 55 51 48 43 33 31 23 18 15 15 16 17 17 14 15 16 16 16 16 15 17 22 25 26 25 24 26 30 29 25 20 19 18
97 97 93 90 81 81 80 76 69 65 63 57 55 52 48 44 40 34 34 30 25 22 21 21 22 25 19 17 17 15 16 17 16 15 21 25 26 27 26 26 29 29 31 31 21 22 20
96 96 96 90 82 74 73 70 66 62 59 54 47 44 37 34 31 30 30 29 26 23 27 31 28 29 20 20 21 20 20 19 17 16 21 28 31 32 28 30 35 36 34 33 28 22 25
90 91 94 92 92 88 80 75 73 66 56 56 48 41 38 35 29 28 28 29 27 32 34 33 31 31 24 23 24 23 21 19 19 20 24 32 35 37 34 38 37 38 41 37 35 26 26
95 90 85 82 90 80 73 66 62 61 56 48 43 41 39 35 34 30 35 39 33 39 38 29 30 30 29 28 26 23 22 22 26 25 32 33 39 42 34 33 37 38 38 40 36 32 37
96 94 91 80 75 79 72 70 66 62 58 52 44 40 38 37 34 34 32 37 39 42 42 33 30 29 26 25 23 25 27 29 33 36 37 40 45 35 34 37 41 43 47 46 41 37 39
95 88 87 88 81 85 80 71 65 61 54 46 44 40 37 33 33 30 27 28 34 37 37 30 26 25 24 23 26 24 33 35 37 40 41 43 36 32 37 40 42 45 48 46 49 44 41
91 91 86 81 79 77 72 73 64 58 55 47 43 39 36 33 33 29 29 29 36 34 37 26 31 32 32 34 35 30 30 37 41 42 42 43 36 36 40 40 40 50 41 47 48 52 57
94 92 90 87 86 84 82 76 70 57 50 48 41 39 38 33 33 30 34 32 36 36 30 25 32 34 38 36 37 41 35 38 42 41 40 39 39 39 42 38 42 45 43 48 55 61 63
82 87 87 91 88 85 84 82 84 73 67 54 52 45 37 35 29 26 37 41 40 36 24 32 38 40 44 41 43 45 39 38 40 44 44 41 41 42 42 43 46 51 53 55 64 68 71
87 88 88 84 94 87 81 75 70 75 69 63 52 47 40 38 25 34 42 47 48 43 20 30 40 43 44 46 45 46 42 42 45 53 51 45 44 43 43 47 50 51 57 74 74 74 70
79 89 87 91 91 82 82 72 63 55 54 60 61 56 44 40 31 43 54 63 57 27 26 33 38 44 49 47 46 48 48 48 45 43 53 54 48 45 44 45 52 59 67 73 78 75 67
74 87 94 91 91 93 85 79 72 68 58 57 56 53 52 44 35 46 64 83 52 39 38 33 39 48 51 46 44 47 52 48 42 44 48 56 54 50 53 55 60 73 74 74 92 89 90
86 81 89 96 94 93 97 94 83 76 71 68 57 48 43 38 41 47 72 74 57 50 53 50 41 35 36 40 49 51 52 47 48 46 46 52 59 55 58 61 69 70 74 88 95 95 90
91 94 87 96 97 98 96 96 98 89 76 69 66 63 52 51 54 59 77 62 50 50 52 53 55 52 49 46 46 52 51 47 49 50 51 57 60 60 65 67 68 78 83 84 87 89 87
90 92 96 94 94 95 96 90 94 97 96 90 78 72 57 54 79 84 77 58 55 54 60 62 63 60 59 58 58 61 58 53 51 50 57 55 68 67 65 68 75 77 84 90 96 88 82
77 87 92 98 91 97 98 95 89 88 94 94 96 92 86 88 93 93 86 69 64 63 67 74 69 65 61 62 65 61 56 53 55 58 64 73 95 96 93 88 90 85 73 78 80 80 77
86 90 92 99 98 98 98 93 85 79 81 91 95 98 92 93 93 84 87 85 81 74 80 80 73 71 69 65 64 63 53 53 54 54 61 77 84 79 77 76 81 89 80 76 77 87 88
91 91 98 97 98 98 97 90 80 76 84 89 86 88 89 96 91 84 76 69 69 71 68 72 77 71 70 77 73 59 55 58 58 59 66 71 84 91 84 83 87 86 83 74 79 68 83
90 95 96 98 98 97 89 82 76 75 84 94 92 92 76 71 75 86 85 82 76 69 73 73 68 63 67 72 69 56 57 63 62 66 76 83 88 90 82 83 86 90 77 74 76 72 93
92 85 93 86 96 95 87 79 76 73 91 93 93 93 82 78 74 81 75 60 54 63 60 56 60 75 81 66 72 65 72 79 77 88 86 92 95 95 90 84 88 91 61 62 58 58 61
87 86 93 93 96 90 84 78 80 82 80 90 90 88 85 78 79 66 63 67 63 65 58 55 55 59 49 59 63 65 75 79 67 67 80 87 98 97 94 92 95 66 62 57 52 60 71
98 98 98 99 97 92 83 81 77 87 91 86 89 92 95 85 75 77 72 66 69 72 62 66 60 63 65 70 80 89 86 77 58 91 90 91 96 97 95 88 77 71 61 58 60 61 75
97 98 97 97 93 88 84 80 82 93 96 92 88 89 89 83 74 72 80 76 79 74 73 65 68 69 71 83 90 88 82 70 82 92 94 94 89 94 94 90 84 55 54 61 64 71 73
84 82 84 84 85 84 79 78 85 94 94 89 86 82 90 82 71 75 74 83 84 88 81 80 82 84 76 80 91 94 88 78 92 94 89 94 95 91 92 89 73 60 66 68 79 71 75
63 60 58 61 70 73 77 80 86 92 89 90 82 77 78 80 76 74 73 75 88 95 86 85 94 84 82 91 81 83 97 80 85 86 83 84 87 85 86 91 81 67 70 74 75 75 74
56 58 59 57 55 63 68 76 84 91 89 91 77 68 73 78 76 81 91 90 93 97 92 91 90 89 88 88 94 97 97 91 79 84 76 80 71 80 84 77 74 75 76 77 73 70 72

GFSGBSN_prec_cthk_123.txt.gz
RH
94 95 92 88 86 80 76 72 67 65 64 62 60 57 57 56 54 50 46 42 38 32 28 26 18 12 10 11 9 9 12 13 15 16 19 19 21 20 16 18 20 22 23 24 24 23 22
97 98 95 96 95 95 89 85 78 73 67 65 63 61 60 58 55 52 45 43 39 31 27 24 18 15 15 16 10 10 11 13 18 19 21 21 22 20 21 24 23 22 24 24 22 22 21
98 96 94 94 94 93 97 95 95 90 79 71 65 62 60 56 54 52 47 44 38 36 28 28 23 20 17 15 13 14 15 17 18 18 19 19 22 24 23 24 25 26 26 23 21 21 23
96 96 95 97 97 98 95 92 93 92 87 80 64 65 60 55 48 47 43 40 34 33 30 29 27 25 22 17 17 17 17 19 20 20 23 25 26 24 25 25 27 26 27 22 21 23 25
99 97 96 97 97 97 96 92 82 84 83 75 68 64 58 51 49 45 38 35 31 29 29 28 28 25 22 20 19 19 18 20 20 19 23 29 30 30 27 27 27 29 23 31 25 24 26
97 95 94 96 95 96 96 95 92 85 80 72 64 59 59 51 47 42 39 36 33 32 32 30 31 28 22 22 24 23 23 24 26 24 26 32 33 31 30 30 21 23 31 35 32 28 30
94 98 91 92 94 94 90 94 97 94 86 79 68 61 59 55 51 44 40 39 36 38 37 26 27 28 30 30 26 26 29 29 26 25 29 34 36 32 29 31 30 31 34 37 35 32 37
83 85 90 94 93 91 91 92 88 84 84 78 74 66 62 53 47 44 41 39 41 44 40 33 29 29 31 31 29 32 32 29 31 31 34 37 41 34 35 38 38 38 40 38 37 35 38
88 90 86 90 94 88 88 84 87 83 75 71 66 58 54 51 48 43 43 45 47 44 42 30 29 30 31 29 31 26 29 30 30 34 37 37 33 33 37 40 40 42 41 40 42 41 39
65 85 98 92 94 90 88 89 92 89 83 74 66 58 56 51 54 49 43 41 45 42 40 27 32 31 29 29 28 22 24 29 37 40 43 42 38 39 39 38 39 45 38 40 43 44 46
66 69 79 94 96 94 88 85 88 88 88 80 71 67 59 54 47 49 48 39 44 43 34 29 37 37 39 31 32 32 28 36 41 41 40 38 39 41 43 39 41 42 41 43 46 51 52
72 69 72 79 88 96 93 89 89 89 80 83 73 63 62 55 49 50 53 50 44 41 31 35 41 41 44 40 41 41 39 37 40 45 43 40 40 39 39 41 43 46 50 52 54 55 57
85 84 75 77 84 89 97 97 95 96 90 84 79 69 58 52 43 50 54 57 53 48 25 34 40 44 43 43 45 42 42 44 43 50 50 46 43 41 41 45 49 49 55 59 64 68 56
87 88 88 91 78 84 84 92 98 99 93 91 89 84 77 62 51 56 69 64 59 31 30 35 42 46 43 41 40 46 44 48 46 46 51 49 43 44 42 41 46 53 53 58 63 66 56
89 94 98 94 93 89 82 94 99 98 98 92 86 83 79 74 60 59 70 79 52 40 33 28 42 45 46 44 43 46 48 47 45 43 41 49 48 47 48 49 51 61 63 59 71 76 80
65 69 82 97 99 99 96 96 98 94 94 92 73 71 67 79 65 68 82 71 57 44 43 37 30 31 38 42 47 51 55 48 45 42 43 49 54 53 57 58 60 59 63 78 87 83 80
59 81 87 92 98 98 98 99 96 96 97 92 81 80 66 64 73 82 86 63 52 54 52 52 47 47 46 46 54 56 53 49 49 49 50 57 59 63 66 62 57 66 71 74 79 88 77
49 66 73 67 78 96 96 98 95 99 99 99 92 83 69 62 72 74 77 58 57 56 57 60 61 61 58 61 63 59 57 56 56 56 63 61 65 67 61 62 60 65 67 73 90 94 94
56 50 51 70 93 93 97 98 98 99 97 98 89 89 84 83 82 76 56 50 59 61 64 64 61 60 61 63 68 69 68 67 63 63 71 70 81 77 73 80 83 80 80 82 90 94 82
59 67 77 91 92 84 90 88 98 98 98 98 99 97 95 93 93 85 73 66 68 63 67 69 71 68 68 69 71 71 69 68 67 67 71 72 76 78 79 88 86 92 81 80 85 90 84
67 75 79 86 96 95 88 98 98 99 98 99 98 98 92 97 94 86 86 75 77 76 78 73 71 75 75 78 77 73 70 65 60 61 65 65 68 71 66 69 78 79 73 77 83 80 89
78 81 78 84 88 93 99 98 92 94 98 98 97 97 89 86 88 91 90 85 78 78 86 88 83 80 81 81 70 69 76 76 74 75 68 68 72 77 69 68 78 81 75 78 78 71 73
78 82 82 82 90 84 95 98 98 98 98 98 91 92 94 86 86 91 88 73 70 78 78 77 81 86 84 71 73 73 79 76 69 71 72 71 75 78 72 71 87 92 61 67 68 63 60
85 82 82 82 80 97 98 98 98 96 96 95 88 89 93 88 88 81 76 70 67 73 77 79 77 77 71 72 75 74 77 74 71 63 65 68 80 95 81 90 95 56 58 60 64 54 60
92 99 85 83 83 92 98 97 96 92 87 87 81 86 98 97 92 84 76 71 78 81 73 74 71 70 70 70 72 72 68 70 57 54 55 63 76 80 87 86 80 70 62 62 60 49 55
98 99 90 81 98 98 94 96 94 92 84 81 77 83 97 94 92 84 80 71 73 74 72 62 63 64 68 72 86 79 72 66 65 61 55 63 69 77 97 94 83 58 57 55 52 49 45
97 98 98 95 94 98 98 93 89 87 83 74 73 76 93 98 81 86 83 75 73 72 65 67 68 71 74 78 80 76 71 68 64 71 71 78 78 90 97 95 80 58 56 58 62 51 50
90 90 92 96 98 96 92 84 83 83 75 73 77 84 90 96 96 88 87 78 74 69 67 71 79 79 88 90 82 77 77 69 73 71 73 87 90 86 89 92 81 55 57 59 56 57 64
70 68 68 69 72 75 77 73 72 72 80 82 83 87 87 92 86 85 80 75 74 79 84 89 89 89 92 92 82 78 76 69 65 78 87 91 83 82 79 70 65 64 64 59 60 66 73

GFSGBSN_prec_cthk_129.txt.gz
RH
97 99 98 96 93 90 87 83 76 73 69 69 66 62 57 56 54 51 48 45 44 43 39 36 32 29 26 26 25 17 10 10 11 12 16 16 16 17 17 19 19 17 16 20 20 17 16
97 96 98 99 98 96 97 96 91 85 81 81 80 78 73 65 62 57 54 50 48 44 41 37 36 31 31 30 25 21 13 13 15 16 18 17 17 18 19 20 20 25 22 22 22 20 18
96 96 97 98 98 97 99 98 97 94 88 88 89 87 83 78 74 66 60 56 51 46 40 38 35 31 32 33 27 26 19 19 21 20 22 20 21 19 20 23 23 21 20 19 20 20 20
89 94 95 94 95 95 98 98 99 98 96 95 94 92 89 85 82 76 64 56 50 44 40 37 33 33 33 29 27 27 24 21 20 21 22 25 22 22 25 26 23 22 23 21 22 23 24
94 93 93 94 94 95 93 97 97 97 98 95 94 93 91 89 89 85 74 62 54 46 43 39 38 42 32 31 27 27 26 25 25 25 26 24 24 26 28 26 26 26 21 24 26 22 22
67 86 93 95 95 92 92 94 95 96 94 95 92 89 91 86 80 79 75 72 66 55 46 49 48 48 35 32 33 31 29 25 27 25 27 26 28 28 27 27 25 26 32 26 24 26 25
60 58 70 86 91 94 89 92 96 96 91 93 91 93 90 86 79 72 71 72 72 73 61 56 52 45 42 39 34 34 33 28 31 28 28 28 31 28 24 28 28 28 26 23 22 23 28
55 53 62 66 72 78 91 94 94 94 95 91 91 90 88 88 83 76 74 81 74 78 66 61 51 47 43 40 37 38 34 33 31 27 27 33 31 24 26 31 32 29 27 26 27 28 30
45 51 49 56 64 74 79 89 92 87 85 89 87 87 88 86 84 81 77 78 79 70 62 53 49 46 39 38 35 38 37 36 32 29 31 33 29 29 29 34 33 30 29 28 30 31 32
36 39 46 49 47 66 64 69 86 87 88 85 89 83 84 87 84 89 86 80 78 66 69 52 49 48 42 41 37 33 39 36 36 33 30 34 32 32 33 33 31 29 30 35 35 30 30
27 30 33 40 53 51 60 70 66 79 82 84 82 79 79 81 83 81 82 78 79 69 84 52 50 50 47 42 38 37 38 42 36 35 33 33 35 35 33 29 29 32 37 34 33 34 33
24 26 28 32 35 45 53 69 65 69 80 78 79 76 76 71 72 80 80 78 75 85 79 57 57 52 52 47 42 50 42 42 41 39 40 35 39 37 32 33 34 37 37 35 37 36 41
22 24 24 25 30 39 52 62 74 77 76 82 83 82 77 72 59 70 72 77 87 78 50 51 53 53 54 51 46 52 42 44 40 38 39 43 40 34 33 38 37 39 40 45 48 53 48
20 17 17 21 24 27 43 55 66 76 87 88 85 88 84 69 71 62 73 86 86 53 52 48 53 55 51 52 49 52 46 41 37 34 35 41 41 38 36 34 40 42 41 41 41 38 33
22 20 16 15 18 22 34 48 64 75 82 91 88 84 77 74 71 73 79 89 65 45 46 52 58 61 57 54 54 56 53 45 42 41 37 44 42 43 41 37 37 44 50 42 46 41 45
25 24 21 17 16 18 25 40 55 63 78 88 94 95 80 80 81 81 90 85 51 41 45 42 47 58 58 56 53 58 54 48 47 43 43 43 49 46 46 42 39 41 50 56 54 53 53
29 27 25 19 17 16 17 33 62 68 90 98 99 98 92 91 94 97 97 77 51 46 58 55 46 58 58 62 52 58 57 59 53 50 47 48 42 53 53 46 42 45 50 54 58 55 55
32 31 27 23 20 19 18 18 52 75 86 98 98 98 93 99 98 90 93 57 61 73 75 72 70 57 51 64 65 63 60 63 56 55 51 48 49 46 55 53 48 50 57 57 71 60 59
40 33 29 29 25 23 21 20 24 67 82 92 98 98 97 99 97 89 67 71 80 79 77 76 66 63 63 62 58 59 62 74 61 55 54 52 58 58 53 54 66 65 55 65 68 65 63
49 41 34 31 29 25 24 24 24 52 76 96 98 98 99 99 97 84 79 78 82 80 80 80 74 67 64 67 64 58 59 67 60 61 55 60 60 61 61 58 77 87 70 68 62 78 74
51 43 38 36 31 27 27 26 30 49 76 99 98 98 98 96 98 86 80 65 69 75 84 89 91 79 73 71 64 61 65 79 76 72 72 75 73 67 66 65 81 84 87 80 78 78 95
53 50 48 39 33 29 32 34 33 56 93 98 99 96 98 91 79 82 81 75 63 56 64 73 81 81 80 86 76 75 77 80 76 77 74 78 89 81 76 73 65 64 61 55 63 65 71
57 54 48 42 35 33 38 43 47 63 97 99 97 96 96 91 89 91 81 60 54 60 61 68 76 73 79 78 75 75 73 84 84 77 75 80 79 82 81 69 68 69 42 56 53 48 54
52 49 46 42 37 39 43 51 46 69 97 98 94 98 98 96 94 88 76 71 59 58 65 70 80 77 79 86 85 84 88 88 83 83 85 98 97 96 90 80 94 60 51 49 56 55 52
46 46 46 42 45 45 49 57 57 68 96 95 95 93 97 98 87 88 84 82 74 69 88 94 88 86 90 96 93 96 91 96 85 81 80 82 82 88 92 76 66 58 47 60 57 52 51
47 51 50 61 66 71 65 62 76 88 91 96 99 94 96 93 85 79 80 68 71 74 84 76 83 90 86 88 93 94 86 72 67 74 66 66 69 83 82 86 80 52 51 61 66 67 50
50 61 68 72 85 83 65 76 92 98 93 97 98 94 88 97 91 88 76 74 72 73 73 77 77 81 86 94 94 93 79 67 80 75 84 79 76 76 74 81 67 41 46 66 74 43 46
71 75 78 94 89 75 74 94 99 97 97 98 97 95 95 97 92 87 91 82 80 83 76 78 81 77 77 81 77 77 76 67 68 65 64 82 81 75 74 78 75 47 54 61 54 60 63
81 81 86 96 93 88 89 97 98 98 99 98 96 96 93 88 86 85 87 83 80 78 75 82 73 74 77 73 67 66 66 62 57 58 55 62 55 60 72 74 82 79 78 77 68 70 76

GFSGBSN_prec_cthk_132.txt.gz
RH
99 98 97 96 95 91 88 85 80 73 67 64 61 60 58 57 54 51 51 49 45 44 42 39 36 32 30 27 25 19 20 15 10 12 14 15 16 17 18 18 18 18 17 18 19 18 18
98 98 98 99 99 98 98 97 96 92 92 89 83 76 69 68 66 63 60 56 52 50 45 42 38 34 31 30 26 23 21 19 15 16 16 16 18 18 19 18 15 18 21 20 21 21 20
90 95 96 97 98 94 97 97 97 98 99 98 96 91 86 80 78 76 75 72 64 58 52 46 40 33 32 30 28 26 26 19 21 20 21 21 21 21 17 15 16 18 20 19 18 19 19
87 87 87 90 93 96 97 96 98 99 99 98 99 97 94 90 88 88 83 83 77 67 58 46 41 36 33 31 29 26 26 27 25 24 21 25 26 24 24 24 26 23 20 21 19 23 23
82 82 89 92 87 92 94 97 95 97 97 94 94 95 94 93 93 94 91 88 81 75 64 51 44 44 40 33 30 29 28 28 28 25 23 25 26 25 24 25 24 23 22 22 23 25 26
65 75 68 78 85 88 89 91 94 94 93 93 94 94 90 91 92 91 91 88 80 75 70 66 60 50 44 37 34 32 30 29 30 30 30 28 28 25 26 28 27 23 26 26 24 29 29
47 53 64 55 62 71 91 92 94 93 94 94 93 90 88 88 91 90 88 82 83 80 69 68 64 57 48 42 43 43 39 34 33 34 31 30 30 29 26 26 26 22 30 32 28 27 31
39 42 52 52 54 58 63 84 88 93 94 92 92 90 89 88 89 91 89 88 84 85 77 72 69 60 61 56 50 47 46 39 35 33 31 31 33 27 25 28 30 28 27 28 26 25 26
31 34 38 43 47 49 51 52 76 79 89 92 89 88 90 90 92 89 86 87 88 87 77 66 64 61 61 54 51 48 48 41 37 35 34 30 29 27 26 28 32 33 30 28 29 29 31
23 25 31 37 43 43 52 51 65 76 73 75 82 87 87 91 90 90 88 88 92 81 85 61 53 51 53 57 48 52 48 42 40 39 35 32 29 33 31 28 31 33 29 30 33 35 32
18 20 23 26 32 37 43 45 68 81 62 73 81 86 85 86 85 86 89 90 91 86 94 58 53 44 51 51 50 48 45 47 43 41 41 34 32 32 36 31 31 34 35 36 35 35 32
18 17 19 22 24 27 34 40 50 66 68 79 73 77 81 83 79 82 86 88 82 92 90 60 53 50 52 49 50 48 44 46 43 44 45 39 36 36 35 36 33 35 40 39 36 35 40
21 19 19 19 20 21 25 31 41 46 71 80 64 72 79 86 72 80 88 87 94 94 61 55 53 56 54 53 53 51 49 45 48 52 46 43 42 41 42 40 38 38 43 44 44 45 39
22 20 17 16 15 16 18 23 30 42 45 69 69 81 88 81 85 83 92 95 93 48 50 47 54 59 55 52 54 51 54 44 46 50 50 51 49 45 44 42 44 42 39 35 43 46 40
19 19 19 17 17 15 16 18 21 29 39 58 77 89 86 77 88 88 93 93 67 45 36 37 46 57 55 54 49 50 53 52 43 47 52 47 42 46 43 42 40 42 42 37 42 41 51
23 21 20 18 16 15 14 15 16 19 35 40 56 87 90 88 94 99 99 94 68 43 38 46 55 57 57 59 56 56 58 51 50 44 47 42 49 43 46 48 45 45 48 57 56 58 57
24 22 20 18 17 15 14 14 16 20 26 43 53 76 91 99 99 99 98 85 62 39 49 65 57 56 51 54 59 63 64 55 51 48 47 44 54 55 59 52 50 46 46 55 61 53 52
29 26 24 21 20 18 18 17 16 18 25 32 57 75 92 95 99 98 97 67 47 53 71 76 71 64 51 53 64 67 61 64 62 58 53 47 57 57 55 57 53 49 45 50 67 60 65
35 32 31 29 25 27 25 22 21 21 27 38 57 68 86 98 98 98 80 67 73 73 72 88 86 75 68 66 66 73 71 82 75 70 64 59 66 66 55 60 58 56 48 56 63 63 67
43 39 36 34 36 32 32 29 24 24 26 42 51 74 71 90 99 98 83 80 78 70 79 89 86 84 75 76 71 69 90 90 84 87 75 71 68 65 63 52 58 67 64 65 66 79 68
50 49 47 42 38 37 36 35 31 29 32 48 56 59 68 92 98 96 88 80 80 80 75 83 96 85 77 73 71 74 80 88 85 85 78 73 73 67 60 54 57 68 71 69 79 88 94
57 51 45 45 43 44 41 40 36 33 34 49 55 57 85 81 96 98 93 86 75 80 79 78 80 80 80 81 81 80 82 88 81 81 78 80 74 67 65 57 60 65 78 74 82 82 79
60 57 54 52 50 50 47 42 41 38 41 48 45 51 77 90 93 97 92 86 82 76 77 71 68 79 81 69 83 88 85 88 84 77 75 81 83 77 76 61 66 81 64 78 68 62 61
67 64 60 52 52 52 48 47 43 40 47 49 43 58 87 78 92 95 88 83 80 79 78 76 77 75 54 78 74 79 85 88 83 74 76 86 89 87 77 73 94 62 56 62 61 55 54
79 72 61 52 50 51 49 41 39 43 49 50 48 81 90 98 86 89 92 75 83 81 76 69 58 70 73 70 74 83 80 84 79 73 73 77 83 92 97 96 82 70 50 58 66 66 54
73 62 53 51 54 49 46 43 42 40 44 50 53 88 99 97 92 76 67 86 96 93 87 76 74 60 70 87 97 94 94 83 76 70 62 68 76 91 98 96 94 50 47 59 65 81 61
62 59 53 54 55 54 53 51 51 54 48 52 75 86 99 99 87 98 95 92 92 90 96 86 88 82 92 94 84 81 83 73 83 79 78 77 78 85 83 86 76 44 54 55 74 58 62
58 53 59 60 60 62 64 71 73 61 55 70 79 91 97 93 86 85 92 88 92 92 96 89 94 88 90 82 75 81 81 72 77 70 69 88 95 84 79 86 84 58 56 64 68 63 58
66 65 63 63 65 80 73 61 67 85 94 93 92 90 97 99 92 91 91 89 93 74 74 74 75 76 71 58 61 70 66 64 62 63 56 68 70 79 90 86 77 76 69 74 72 75 66

GFSGBSN_prec_cthk_135.txt.gz
RH
99 99 98 96 95 91 88 83 70 66 61 58 55 53 51 51 51 50 49 47 46 44 41 40 38 35 33 28 23 27 21 20 16 9 9 16 17 17 17 17 20 20 17 19 18 18 23
97 99 99 98 99 97 95 97 94 92 92 91 89 82 76 70 65 61 60 57 55 54 49 46 42 37 32 30 25 24 22 22 19 16 12 15 18 19 17 16 18 17 18 18 18 19 18
95 95 95 96 98 98 97 95 95 97 98 98 99 98 94 92 86 83 75 73 71 67 62 56 47 37 32 31 31 26 24 26 21 17 17 16 19 20 20 18 18 16 18 18 17 19 20
94 93 90 92 93 94 95 96 95 98 99 98 96 96 94 94 95 93 90 86 84 78 72 66 59 49 38 38 35 35 28 26 25 22 21 21 24 22 20 20 19 21 21 22 16 16 19
79 81 83 84 93 93 94 92 93 96 96 98 97 95 95 90 93 90 92 89 89 85 81 72 65 58 52 41 38 34 31 29 26 25 25 24 27 26 24 24 26 25 26 22 18 17 23
59 75 82 76 74 78 85 93 91 92 94 95 97 96 96 95 92 91 90 90 85 84 78 76 70 67 58 50 42 37 34 28 27 29 28 27 29 28 25 27 33 28 28 23 24 25 27
51 46 54 77 72 60 65 81 77 83 90 91 91 93 96 96 95 92 92 90 89 85 82 77 71 61 57 49 51 44 40 38 33 36 35 32 34 34 28 26 26 26 25 29 30 32 33
39 39 42 49 59 63 63 58 69 72 75 83 90 93 96 96 96 93 91 93 88 87 80 76 71 63 62 55 54 57 53 46 44 44 43 42 40 33 30 29 29 29 27 30 31 33 32
34 34 34 35 41 46 51 51 58 54 64 64 68 88 96 96 91 88 90 92 92 88 82 66 63 58 62 66 56 56 58 60 50 46 44 42 34 30 30 28 29 31 31 30 31 32 31
23 27 30 32 34 39 41 46 44 50 56 70 66 68 68 79 85 87 84 92 94 88 90 64 58 53 54 65 54 55 58 58 55 48 46 41 36 32 36 33 28 31 32 32 32 32 31
20 21 20 20 23 25 27 35 40 46 55 61 70 62 64 71 76 80 80 80 91 86 95 62 58 51 51 59 53 51 62 62 59 56 51 43 37 32 36 37 34 33 34 33 34 35 35
19 18 18 19 21 22 21 23 27 34 46 67 71 70 70 69 70 72 71 79 83 92 89 64 57 54 53 56 55 52 55 58 63 61 54 45 41 39 36 36 36 34 36 37 40 41 52
21 19 19 18 18 18 19 20 24 28 39 59 67 65 69 71 70 75 76 83 84 86 54 51 54 56 57 54 55 57 57 55 62 64 57 55 49 44 43 43 41 42 46 62 59 59 49
22 20 19 18 17 17 16 17 18 23 28 44 57 64 74 73 71 70 87 86 84 50 45 41 48 64 64 57 50 56 59 56 54 55 54 53 49 47 41 41 45 46 49 60 64 63 47
23 21 20 18 15 13 13 14 17 20 23 31 40 57 70 70 73 85 91 90 68 46 39 41 42 54 64 61 55 53 57 53 46 48 52 54 49 41 43 46 48 50 52 47 54 50 63
25 24 22 21 19 16 15 15 16 18 18 21 28 39 52 65 87 93 99 97 67 49 41 48 57 50 53 59 63 60 59 45 46 44 45 46 53 43 41 49 47 52 53 63 68 66 59
24 23 22 20 21 22 20 19 18 18 21 23 21 30 31 64 88 90 98 94 67 46 51 63 74 65 54 52 57 68 68 59 52 46 51 45 56 50 48 44 43 51 55 60 62 63 66
29 28 25 24 25 25 25 24 22 19 20 23 27 26 31 47 86 92 97 93 68 58 62 68 69 59 56 65 67 63 80 69 76 68 59 48 56 57 52 51 47 48 48 57 76 70 73
32 32 30 29 28 26 27 25 23 20 20 30 34 33 29 42 59 79 98 91 88 74 69 77 85 69 73 78 78 71 73 84 88 88 86 69 69 72 58 62 57 58 52 55 63 67 65
38 38 37 34 33 31 31 31 27 24 24 28 36 38 41 41 36 46 84 98 91 81 83 83 86 78 84 84 78 78 84 91 96 94 83 87 75 66 61 59 62 67 61 59 64 75 60
47 45 42 38 40 40 38 35 34 30 32 34 38 40 37 43 52 54 66 83 95 86 84 80 97 76 72 89 83 85 91 93 92 96 98 98 99 92 74 69 71 83 76 71 77 81 86
51 54 52 48 44 44 40 40 38 38 39 42 43 44 43 39 36 45 59 94 88 93 82 87 95 79 89 86 84 92 95 96 90 85 93 95 98 96 95 77 74 83 81 80 82 82 84
62 61 55 52 49 48 46 47 46 46 46 48 42 44 52 43 49 73 54 60 80 89 89 85 89 88 88 78 86 83 82 85 80 82 85 89 88 88 85 75 75 78 70 70 72 69 66
71 66 61 58 55 50 49 49 50 49 50 49 48 49 54 46 46 34 51 84 77 78 93 85 85 88 69 79 84 87 84 79 78 77 79 84 88 89 85 77 91 67 57 56 59 58 62
76 74 69 65 63 58 54 53 54 50 52 53 51 59 59 51 46 37 41 67 76 82 91 90 87 81 88 89 91 91 81 68 57 53 58 62 74 87 92 83 73 64 54 64 73 73 62
79 75 70 64 60 54 50 49 51 47 46 50 55 60 67 58 37 55 70 81 95 86 91 92 96 83 89 92 88 79 73 63 58 52 48 58 72 86 85 87 81 53 60 66 73 73 61
87 79 63 52 54 53 47 47 48 48 47 50 44 56 68 58 38 72 85 94 84 93 94 96 89 95 79 84 85 87 77 67 72 69 72 82 85 85 82 89 79 61 65 62 75 66 61
94 82 65 58 48 50 51 49 48 47 48 57 43 49 61 52 66 80 95 98 90 91 89 82 98 96 87 83 88 82 87 78 74 70 72 80 93 95 90 97 89 65 66 73 78 74 66
82 74 63 53 52 57 50 52 54 60 63 75 63 63 59 79 72 85 90 95 96 91 96 96 90 88 82 81 79 84 85 72 65 66 51 55 60 68 72 78 72 68 68 70 69 65 71

GFSGBSN_prec_cthk_138.txt.gz
RH
93 92 97 97 96 91 83 73 62 56 49 46 44 43 42 40 39 39 39 39 41 40 40 38 37 35 32 29 26 25 22 21 20 18 11 15 14 15 15 16 19 19 16 18 19 20 21
98 98 99 98 98 98 99 98 95 92 91 87 77 73 71 68 64 58 52 52 50 49 47 44 42 40 35 30 28 26 24 23 22 19 17 14 16 16 15 15 19 18 16 16 18 18 18
99 99 98 98 98 99 98 99 98 97 96 97 96 93 90 88 90 82 78 73 70 66 62 56 51 47 41 34 36 31 27 26 25 22 20 18 18 20 17 16 18 17 18 16 17 19 19
98 97 97 96 97 97 97 97 94 98 97 97 97 97 98 92 92 92 90 86 87 83 79 73 65 56 52 49 41 37 36 30 30 27 25 23 23 22 20 19 19 19 19 20 17 18 19
85 86 93 91 91 94 91 93 92 93 97 98 97 95 94 95 92 91 87 85 85 84 82 76 71 67 59 56 49 42 37 35 31 31 29 27 25 25 24 22 23 21 24 22 20 17 17
71 74 78 80 76 80 85 90 92 91 93 96 95 94 96 92 92 95 95 91 84 82 80 78 70 69 61 57 50 50 47 42 40 34 32 29 28 31 32 29 26 27 31 28 24 20 21
63 63 65 65 68 70 79 80 79 82 87 86 92 94 95 95 96 95 93 91 93 88 82 77 74 67 65 58 57 53 51 48 42 41 38 32 33 35 31 30 28 28 27 26 23 26 27
52 50 53 55 60 67 60 67 81 79 70 77 79 83 83 86 91 89 88 92 95 92 80 74 72 65 63 69 61 56 57 54 51 46 43 42 41 32 33 33 32 33 34 33 28 28 32
50 49 48 47 49 47 52 62 61 61 76 76 72 70 74 79 80 81 83 89 94 92 83 69 67 60 60 59 62 60 63 60 55 51 50 45 41 40 42 41 39 35 36 33 32 28 33
31 36 40 40 41 44 44 46 49 51 56 59 65 66 66 63 62 67 77 79 85 89 91 68 67 57 53 57 55 58 63 61 58 55 56 48 45 43 41 42 39 36 30 30 32 34 38
24 23 24 26 32 36 41 43 43 45 44 49 61 65 60 58 57 59 60 64 72 77 84 57 58 55 54 58 54 53 58 63 60 58 57 48 47 49 46 42 40 40 33 35 35 38 36
23 22 22 22 21 22 25 27 30 35 38 47 61 59 66 63 60 61 64 64 69 74 69 46 49 53 56 58 57 51 54 60 61 65 59 53 51 51 47 40 37 39 41 42 43 42 48
25 22 20 20 20 21 22 22 23 24 27 38 55 65 63 61 63 63 64 68 72 69 35 39 40 42 42 52 58 56 56 62 62 73 64 63 57 62 55 50 45 46 50 62 59 60 45
27 24 23 23 22 21 21 21 20 22 26 34 46 64 65 63 69 66 68 75 71 38 34 32 33 44 47 47 49 52 56 57 57 64 66 67 59 55 55 56 55 50 49 57 61 60 46
28 25 23 22 21 20 18 18 18 18 20 26 38 54 64 68 72 73 79 80 52 40 34 36 30 40 48 51 48 47 50 52 51 52 63 62 53 43 49 51 51 50 53 47 57 62 69
32 29 26 23 21 19 16 16 16 16 15 16 21 32 52 68 75 77 89 77 57 36 41 46 49 46 49 47 50 55 55 43 46 48 54 57 55 46 43 50 47 52 51 60 71 65 62
39 38 37 31 26 22 18 16 15 16 17 17 17 21 27 45 74 82 90 85 57 50 61 63 67 65 55 47 56 62 73 58 61 54 59 56 59 47 49 42 41 51 55 58 58 61 61
39 35 32 30 28 24 20 19 18 18 19 20 20 23 30 35 53 73 81 85 67 68 76 73 74 77 73 80 73 71 62 71 75 80 78 59 61 57 48 44 44 48 54 58 67 65 66
43 38 32 27 25 24 22 22 21 21 22 25 25 28 33 43 50 58 64 77 85 69 74 80 82 75 79 76 79 63 73 93 74 93 96 88 80 70 52 49 45 54 47 52 59 68 71
39 33 33 31 32 29 26 26 26 24 24 29 29 34 34 36 38 40 44 61 89 66 70 88 92 83 83 75 73 68 69 85 95 91 94 98 95 88 68 68 68 56 51 54 61 72 68
44 40 37 37 35 34 32 34 33 29 33 34 33 34 37 46 40 40 43 35 33 46 57 79 95 96 91 89 76 76 84 86 95 97 97 97 98 98 96 97 84 74 71 73 74 81 83
46 47 46 43 44 42 42 40 38 37 44 45 40 41 42 39 37 41 41 33 38 31 42 65 87 81 89 94 75 82 82 88 91 96 95 94 97 97 97 98 97 95 93 91 98 98 97
53 53 57 54 50 52 50 47 47 47 50 54 48 50 47 43 45 45 42 39 34 42 39 43 76 82 96 77 84 83 91 95 90 92 92 88 93 97 89 98 96 92 84 86 81 84 89
66 62 63 61 61 65 61 58 60 58 58 55 53 51 51 47 46 40 34 32 40 50 55 56 91 92 70 89 93 96 96 95 89 84 85 93 95 95 93 91 96 66 64 69 75 74 74
80 77 76 73 71 72 71 65 66 64 63 63 60 59 57 53 47 40 38 35 33 32 41 46 69 76 98 92 98 98 96 86 71 71 72 74 79 87 82 82 69 57 54 71 73 73 75
86 80 81 81 80 76 71 66 66 67 67 70 68 69 69 63 43 42 43 40 43 40 44 49 64 77 95 98 99 92 88 66 67 60 59 66 66 64 72 79 74 49 58 71 58 66 68
91 86 82 82 77 66 62 62 63 58 57 59 58 66 74 66 45 50 50 42 43 64 67 88 88 90 96 98 97 95 92 71 66 58 55 66 71 68 76 84 66 47 53 72 74 63 60
94 92 90 87 78 60 56 54 53 55 59 64 59 60 58 55 51 55 44 44 38 60 73 75 98 97 98 98 94 92 85 68 62 55 57 60 69 79 86 85 74 60 66 71 76 60 62
92 89 90 84 69 66 58 55 56 58 62 66 62 60 61 61 46 37 31 31 46 68 90 96 98 95 95 96 88 84 73 69 60 65 58 66 61 65 66 58 49 48 55 61 65 63 61